Observation data for Crane on 12/08/2018      Previous  Date       Current Mesonet Observations  Soil Data  Daily Summary Page  Observations in Plain Language
KCR2 080600Z 03009KT 03/02 A3024 RMK A01 T00280019  RH  094%=      5-min Rain = 0
KCR2 080601Z 03010KT 03/02 A3024 RMK A01 T00280019  RH  094%=      5-min Rain = 0
KCR2 080602Z 03009KT 03/02 A3024 RMK A01 T00270019  RH  094%=      5-min Rain = 0.01
KCR2 080603Z 03008KT 03/02 A3024 RMK A01 T00270019  RH  094%=      5-min Rain = 0
KCR2 080604Z 03008KT 03/02 A3024 RMK A01 T00270019  RH  094%=      5-min Rain = 0
KCR2 080605Z 03009KT 03/02 A3024 RMK A01 T00270019  RH  095%=      5-min Rain = 0
KCR2 080606Z 03007KT 03/02 A3024 RMK A01 T00270019  RH  095%=      5-min Rain = 0
KCR2 080607Z 03008KT 03/02 A3024 RMK A01 T00270019  RH  095%=      5-min Rain = 0
KCR2 080608Z 04006KT 03/02 A3024 RMK A01 T00270019  RH  095%=      5-min Rain = 0
KCR2 080609Z 03006KT 03/02 A3024 RMK A01 T00270020  RH  095%=      5-min Rain = 0
KCR2 080610Z 04007KT 03/02 A3024 RMK A01 T00270020  RH  095%=      5-min Rain = 0.01
KCR2 080611Z 04006KT 03/02 A3024 RMK A01 T00270019  RH  095%=      5-min Rain = 0
KCR2 080612Z 04007KT 03/02 A3024 RMK A01 T00260019  RH  095%=      5-min Rain = 0
KCR2 080613Z 03006KT 03/02 A3024 RMK A01 T00260019  RH  095%=      5-min Rain = 0
KCR2 080614Z 04006KT 03/02 A3024 RMK A01 T00260019  RH  095%=      5-min Rain = 0
KCR2 080615Z 03006KT 03/02 A3024 RMK A01 T00260019  RH  095%=      5-min Rain = 0
KCR2 080616Z 04006KT 03/02 A3025 RMK A01 T00270020  RH  095%=      5-min Rain = 0
KCR2 080617Z 04007KT 03/02 A3024 RMK A01 T00260019  RH  095%=      5-min Rain = 0
KCR2 080618Z 04007KT 03/02 A3024 RMK A01 T00270020  RH  095%=      5-min Rain = 0.01
KCR2 080619Z 03007KT 03/02 A3024 RMK A01 T00260020  RH  095%=      5-min Rain = 0
KCR2 080620Z 04007KT 03/02 A3024 RMK A01 T00260020  RH  095%=      5-min Rain = 0
KCR2 080621Z 04008KT 03/02 A3024 RMK A01 T00260020  RH  095%=      5-min Rain = 0
KCR2 080622Z 04008KT 03/02 A3024 RMK A01 T00260020  RH  095%=      5-min Rain = 0
KCR2 080623Z 04008KT 03/02 A3024 RMK A01 T00260019  RH  095%=      5-min Rain = 0.01
KCR2 080624Z 05008KT 03/02 A3024 RMK A01 T00260019  RH  095%=      5-min Rain = 0
KCR2 080625Z 05008KT 03/02 A3024 RMK A01 T00260020  RH  095%=      5-min Rain = 0
KCR2 080626Z 05008KT 03/02 A3024 RMK A01 T00260019  RH  095%=      5-min Rain = 0
KCR2 080627Z 05009KT 03/02 A3023 RMK A01 T00260020  RH  096%=      5-min Rain = 0.01
KCR2 080628Z 05008KT 03/02 A3023 RMK A01 T00260020  RH  095%=      5-min Rain = 0
KCR2 080629Z 05009KT 03/02 A3023 RMK A01 T00260020  RH  096%=      5-min Rain = 0
KCR2 080630Z 06007KT 03/02 A3023 RMK A01 T00260020  RH  096%=      5-min Rain = 0
KCR2 080631Z 06007KT 03/02 A3024 RMK A01 T00260020  RH  096%=      5-min Rain = 0
KCR2 080632Z 05008KT 03/02 A3024 RMK A01 T00260020  RH  096%=      5-min Rain = 0
KCR2 080633Z 06008KT 03/02 A3024 RMK A01 T00260020  RH  096%=      5-min Rain = 0
KCR2 080634Z 06008KT 03/02 A3023 RMK A01 T00260020  RH  096%=      5-min Rain = 0.01
KCR2 080635Z 06008KT 03/02 A3023 RMK A01 T00260020  RH  096%=      5-min Rain = 0
KCR2 080636Z 06008KT 03/02 A3023 RMK A01 T00260020  RH  096%=      5-min Rain = 0
KCR2 080637Z 06007KT 03/02 A3023 RMK A01 T00260020  RH  096%=      5-min Rain = 0
KCR2 080638Z 06009KT 03/02 A3023 RMK A01 T00260021  RH  096%=      5-min Rain = 0
KCR2 080639Z 06009KT 03/02 A3022 RMK A01 T00260021  RH  096%=      5-min Rain = 0
KCR2 080640Z 06009KT 03/02 A3022 RMK A01 T00260021  RH  096%=      5-min Rain = 0.01
KCR2 080641Z 06009KT 03/02 A3022 RMK A01 T00260021  RH  096%=      5-min Rain = 0
KCR2 080642Z 06009KT 03/02 A3022 RMK A01 T00260021  RH  096%=      5-min Rain = 0
KCR2 080643Z 06009KT 03/02 A3022 RMK A01 T00260021  RH  096%=      5-min Rain = 0
KCR2 080644Z 06010KT 03/02 A3022 RMK A01 T00260021  RH  096%=      5-min Rain = 0
KCR2 080645Z 06008KT 03/02 A3021 RMK A01 T00260021  RH  096%=      5-min Rain = 0
KCR2 080646Z 06010KT 03/02 A3021 RMK A01 T00260021  RH  096%=      5-min Rain = 0
KCR2 080647Z 07010KT 03/02 A3021 RMK A01 T00260021  RH  096%=      5-min Rain = 0.01
KCR2 080648Z 06012KT 03/02 A3021 RMK A01 T00260021  RH  096%=      5-min Rain = 0
KCR2 080649Z 06011KT 03/02 A3021 RMK A01 T00260021  RH  096%=      5-min Rain = 0
KCR2 080650Z 06013KT 03/02 A302 RMK A01 T00260021  RH  096%=      5-min Rain = 0.01
KCR2 080651Z 06013KT 03/02 A302 RMK A01 T00260020  RH  096%=      5-min Rain = 0
KCR2 080652Z 07013KT 03/02 A302 RMK A01 T00260020  RH  096%=      5-min Rain = 0.01
KCR2 080653Z 07014KT 03/02 A302 RMK A01 T00260020  RH  096%=      5-min Rain = 0
KCR2 080654Z 07014KT 03/02 A302 RMK A01 T00260020  RH  096%=      5-min Rain = 0
KCR2 080655Z 08015KT 03/02 A302 RMK A01 T00260020  RH  096%=      5-min Rain = 0.01
KCR2 080656Z 08014KT 03/02 A302 RMK A01 T00260020  RH  095%=      5-min Rain = 0
KCR2 080657Z 08014KT 03/02 A3019 RMK A01 T00260019  RH  095%=      5-min Rain = 0.01
KCR2 080658Z 08013KT 03/02 A3019 RMK A01 T00260019  RH  095%=      5-min Rain = 0
KCR2 080659Z 08012KT 03/02 A3019 RMK A01 T00260020  RH  095%=      5-min Rain = 0
KCR2 080700Z 08013KT 03/02 A3019 RMK A01 T00270020  RH  095%=      5-min Rain = 0.01
KCR2 080701Z 08012KT 03/02 A3019 RMK A01 T00260020  RH  095%=      5-min Rain = 0
KCR2 080702Z 08012KT 03/02 A3019 RMK A01 T00260019  RH  095%=      5-min Rain = 0
KCR2 080703Z 08012KT 03/02 A3019 RMK A01 T00270019  RH  095%=      5-min Rain = 0
KCR2 080704Z 08011KT 03/02 A3019 RMK A01 T00260019  RH  095%=      5-min Rain = 0
KCR2 080705Z 07011KT 03/02 A302 RMK A01 T00260019  RH  095%=      5-min Rain = 0
KCR2 080706Z 07009KT 03/02 A302 RMK A01 T00260019  RH  095%=      5-min Rain = 0.01
KCR2 080707Z 06009KT 03/02 A302 RMK A01 T00260019  RH  095%=      5-min Rain = 0
KCR2 080708Z 05009KT 03/02 A302 RMK A01 T00260019  RH  095%=      5-min Rain = 0
KCR2 080709Z 05008KT 03/02 A302 RMK A01 T00260019  RH  095%=      5-min Rain = 0
KCR2 080710Z 06007KT 03/02 A302 RMK A01 T00260019  RH  095%=      5-min Rain = 0
KCR2 080711Z 06008KT 03/02 A302 RMK A01 T00260019  RH  095%=      5-min Rain = 0
KCR2 080712Z 06009KT 03/02 A302 RMK A01 T00260018  RH  095%=      5-min Rain = 0
KCR2 080713Z 06008KT 03/02 A302 RMK A01 T00260019  RH  095%=      5-min Rain = 0
KCR2 080714Z 06008KT 03/02 A302 RMK A01 T00260019  RH  095%=      5-min Rain = 0
KCR2 080715Z 06007KT 03/02 A302 RMK A01 T00260019  RH  095%=      5-min Rain = 0
KCR2 080716Z 05007KT 03/02 A302 RMK A01 T00260019  RH  095%=      5-min Rain = 0
KCR2 080717Z 05007KT 03/02 A302 RMK A01 T00260019  RH  095%=      5-min Rain = 0
KCR2 080718Z 06008KT 03/02 A302 RMK A01 T00260019  RH  095%=      5-min Rain = 0
KCR2 080719Z 05009KT 03/02 A3021 RMK A01 T00260019  RH  095%=      5-min Rain = 0
KCR2 080720Z 05009KT 03/02 A3021 RMK A01 T00260018  RH  095%=      5-min Rain = 0
KCR2 080721Z 05009KT 03/02 A3021 RMK A01 T00260018  RH  095%=      5-min Rain = 0
KCR2 080722Z 05008KT 03/02 A3021 RMK A01 T00260018  RH  095%=      5-min Rain = 0
KCR2 080723Z 05008KT 03/02 A3021 RMK A01 T00260018  RH  095%=      5-min Rain = 0
KCR2 080724Z 05008KT 03/02 A3021 RMK A01 T00260018  RH  095%=      5-min Rain = 0
KCR2 080725Z 05006KT 03/02 A3021 RMK A01 T00260019  RH  095%=      5-min Rain = 0
KCR2 080726Z 05007KT 03/02 A3021 RMK A01 T00270019  RH  095%=      5-min Rain = 0
KCR2 080727Z 04007KT 03/02 A3021 RMK A01 T00260019  RH  095%=      5-min Rain = 0
KCR2 080728Z 05007KT 03/02 A3021 RMK A01 T00260019  RH  095%=      5-min Rain = 0
KCR2 080729Z 04008KT 03/02 A3021 RMK A01 T00270019  RH  095%=      5-min Rain = 0
KCR2 080730Z 04007KT 03/02 A3021 RMK A01 T00270019  RH  095%=      5-min Rain = 0
KCR2 080731Z 04007KT 03/02 A3021 RMK A01 T00260019  RH  095%=      5-min Rain = 0
KCR2 080732Z 03006KT 03/02 A3021 RMK A01 T00270019  RH  095%=      5-min Rain = 0
KCR2 080733Z 04006KT 03/02 A3021 RMK A01 T00270019  RH  095%=      5-min Rain = 0
KCR2 080734Z 04007KT 03/02 A3021 RMK A01 T00270019  RH  095%=      5-min Rain = 0
KCR2 080735Z 03005KT 03/02 A3021 RMK A01 T00270020  RH  095%=      5-min Rain = 0
KCR2 080736Z 04005KT 03/02 A3021 RMK A01 T00270020  RH  095%=      5-min Rain = 0
KCR2 080737Z 03007KT 03/02 A3021 RMK A01 T00270020  RH  095%=      5-min Rain = 0
KCR2 080738Z 04006KT 03/02 A3021 RMK A01 T00270020  RH  095%=      5-min Rain = 0
KCR2 080739Z 04007KT 03/02 A3021 RMK A01 T00270019  RH  094%=      5-min Rain = 0
KCR2 080740Z 04007KT 03/02 A3021 RMK A01 T00270019  RH  094%=      5-min Rain = 0
KCR2 080741Z 04006KT 03/02 A3021 RMK A01 T00280019  RH  094%=      5-min Rain = 0
KCR2 080742Z 04005KT 03/02 A3021 RMK A01 T00280019  RH  094%=      5-min Rain = 0
KCR2 080743Z 04006KT 03/02 A3021 RMK A01 T00280019  RH  094%=      5-min Rain = 0
KCR2 080744Z 04007KT 03/02 A3021 RMK A01 T00280019  RH  094%=      5-min Rain = 0
KCR2 080745Z 04006KT 03/02 A3021 RMK A01 T00280018  RH  093%=      5-min Rain = 0
KCR2 080746Z 03007KT 03/02 A3021 RMK A01 T00280018  RH  093%=      5-min Rain = 0
KCR2 080747Z 04008KT 03/02 A3021 RMK A01 T00280017  RH  093%=      5-min Rain = 0
KCR2 080748Z 05006KT 03/02 A3021 RMK A01 T00280017  RH  093%=      5-min Rain = 0
KCR2 080749Z 05006KT 03/02 A3021 RMK A01 T00280018  RH  093%=      5-min Rain = 0
KCR2 080750Z 04007KT 03/02 A3021 RMK A01 T00280018  RH  093%=      5-min Rain = 0
KCR2 080751Z 04005KT 03/02 A3021 RMK A01 T00280018  RH  093%=      5-min Rain = 0
KCR2 080752Z 05006KT 03/02 A3021 RMK A01 T00280018  RH  093%=      5-min Rain = 0
KCR2 080753Z 04007KT 03/02 A3021 RMK A01 T00290018  RH  093%=      5-min Rain = 0
KCR2 080754Z 04008KT 03/02 A3021 RMK A01 T00280017  RH  093%=      5-min Rain = 0
KCR2 080755Z 06007KT 03/02 A3021 RMK A01 T00280017  RH  092%=      5-min Rain = 0
KCR2 080756Z 06008KT 03/02 A3021 RMK A01 T00280017  RH  092%=      5-min Rain = 0
KCR2 080757Z 05007KT 03/02 A3021 RMK A01 T00280017  RH  092%=      5-min Rain = 0
KCR2 080758Z 05009KT 03/02 A3021 RMK A01 T00280017  RH  092%=      5-min Rain = 0
KCR2 080759Z 06009KT 03/02 A3021 RMK A01 T00280016  RH  092%=      5-min Rain = 0
KCR2 080800Z 06008KT 03/02 A3021 RMK A01 T00280015  RH  091%=      5-min Rain = 0
KCR2 080801Z 06009KT 03/02 A3021 RMK A01 T00280015  RH  091%=      5-min Rain = 0
KCR2 080802Z 06009KT 03/02 A3021 RMK A01 T00280015  RH  091%=      5-min Rain = 0
KCR2 080803Z 06009KT 03/02 A3021 RMK A01 T00280015  RH  092%=      5-min Rain = 0
KCR2 080804Z 07009KT 03/02 A3021 RMK A01 T00280015  RH  092%=      5-min Rain = 0
KCR2 080805Z 07008KT 03/02 A3021 RMK A01 T00280015  RH  091%=      5-min Rain = 0
KCR2 080806Z 06009KT 03/02 A3021 RMK A01 T00280016  RH  092%=      5-min Rain = 0
KCR2 080807Z 06007KT 03/02 A3021 RMK A01 T00280015  RH  092%=      5-min Rain = 0
KCR2 080808Z 06008KT 03/02 A3021 RMK A01 T00280015  RH  091%=      5-min Rain = 0
KCR2 080809Z 06006KT 03/02 A3021 RMK A01 T00270015  RH  091%=      5-min Rain = 0
KCR2 080810Z 05008KT 03/02 A3021 RMK A01 T00270016  RH  092%=      5-min Rain = 0
KCR2 080811Z 06009KT 03/02 A3021 RMK A01 T00280015  RH  092%=      5-min Rain = 0
KCR2 080812Z 05008KT 03/02 A3021 RMK A01 T00280015  RH  092%=      5-min Rain = 0
KCR2 080813Z 05007KT 03/02 A3021 RMK A01 T00270015  RH  091%=      5-min Rain = 0
KCR2 080814Z 05007KT 03/02 A3021 RMK A01 T00270015  RH  092%=      5-min Rain = 0
KCR2 080815Z 06005KT 03/02 A3021 RMK A01 T00270015  RH  092%=      5-min Rain = 0
KCR2 080816Z 06005KT 03/02 A3021 RMK A01 T00270015  RH  092%=      5-min Rain = 0
KCR2 080817Z 06004KT 03/02 A3021 RMK A01 T00270016  RH  092%=      5-min Rain = 0
KCR2 080818Z 06006KT 03/02 A3021 RMK A01 T00280016  RH  092%=      5-min Rain = 0
KCR2 080819Z 05006KT 03/02 A3021 RMK A01 T00270016  RH  092%=      5-min Rain = 0
KCR2 080820Z 05007KT 03/02 A3021 RMK A01 T00270016  RH  092%=      5-min Rain = 0
KCR2 080821Z 05005KT 03/02 A3021 RMK A01 T00280016  RH  092%=      5-min Rain = 0
KCR2 080822Z 04004KT 03/02 A3022 RMK A01 T00270016  RH  092%=      5-min Rain = 0
KCR2 080823Z 05005KT 03/02 A3022 RMK A01 T00270016  RH  092%=      5-min Rain = 0
KCR2 080824Z 04005KT 03/02 A3022 RMK A01 T00270016  RH  092%=      5-min Rain = 0
KCR2 080825Z 04005KT 03/02 A3022 RMK A01 T00280017  RH  092%=      5-min Rain = 0
KCR2 080826Z 03006KT 03/02 A3022 RMK A01 T00270016  RH  092%=      5-min Rain = 0
KCR2 080827Z 03006KT 03/02 A3022 RMK A01 T00270016  RH  092%=      5-min Rain = 0
KCR2 080828Z 04006KT 03/02 A3022 RMK A01 T00270015  RH  092%=      5-min Rain = 0
KCR2 080829Z 02005KT 03/02 A3022 RMK A01 T00270015  RH  092%=      5-min Rain = 0
KCR2 080830Z 02005KT 03/02 A3022 RMK A01 T00270015  RH  092%=      5-min Rain = 0
KCR2 080831Z 03005KT 03/02 A3022 RMK A01 T00270016  RH  092%=      5-min Rain = 0
KCR2 080832Z 04005KT 03/02 A3022 RMK A01 T00270016  RH  092%=      5-min Rain = 0
KCR2 080833Z 04005KT 03/02 A3022 RMK A01 T00270016  RH  092%=      5-min Rain = 0
KCR2 080834Z 03005KT 03/02 A3022 RMK A01 T00270016  RH  092%=      5-min Rain = 0
KCR2 080835Z 04005KT 03/02 A3022 RMK A01 T00270016  RH  092%=      5-min Rain = 0
KCR2 080836Z 03004KT 03/02 A3022 RMK A01 T00270016  RH  092%=      5-min Rain = 0
KCR2 080837Z 03004KT 03/02 A3022 RMK A01 T00280017  RH  093%=      5-min Rain = 0
KCR2 080838Z 04004KT 03/02 A3022 RMK A01 T00280017  RH  093%=      5-min Rain = 0
KCR2 080839Z 04005KT 03/02 A3022 RMK A01 T00280017  RH  093%=      5-min Rain = 0
KCR2 080840Z 04006KT 03/02 A3022 RMK A01 T00280017  RH  093%=      5-min Rain = 0
KCR2 080841Z 04006KT 03/02 A3022 RMK A01 T00280017  RH  092%=      5-min Rain = 0
KCR2 080842Z 04007KT 03/02 A3022 RMK A01 T00280016  RH  092%=      5-min Rain = 0
KCR2 080843Z 04006KT 03/02 A3022 RMK A01 T00280015  RH  092%=      5-min Rain = 0
KCR2 080844Z 03006KT 03/02 A3022 RMK A01 T00280016  RH  092%=      5-min Rain = 0
KCR2 080845Z 03005KT 03/02 A3022 RMK A01 T00280016  RH  092%=      5-min Rain = 0
KCR2 080846Z 02006KT 03/02 A3022 RMK A01 T00280016  RH  092%=      5-min Rain = 0
KCR2 080847Z 02007KT 03/02 A3022 RMK A01 T00280016  RH  092%=      5-min Rain = 0
KCR2 080848Z 03006KT 03/02 A3022 RMK A01 T00280016  RH  092%=      5-min Rain = 0
KCR2 080849Z 03006KT 03/02 A3023 RMK A01 T00280016  RH  092%=      5-min Rain = 0
KCR2 080850Z 02007KT 03/02 A3023 RMK A01 T00280016  RH  092%=      5-min Rain = 0
KCR2 080851Z 03007KT 03/02 A3023 RMK A01 T00280016  RH  092%=      5-min Rain = 0
KCR2 080852Z 02006KT 03/02 A3023 RMK A01 T00280016  RH  092%=      5-min Rain = 0
KCR2 080853Z 02006KT 03/02 A3023 RMK A01 T00280016  RH  092%=      5-min Rain = 0
KCR2 080854Z 02005KT 03/02 A3023 RMK A01 T00280016  RH  092%=      5-min Rain = 0
KCR2 080855Z 03008KT 03/02 A3023 RMK A01 T00280016  RH  092%=      5-min Rain = 0
KCR2 080856Z 03007KT 03/02 A3023 RMK A01 T00280016  RH  092%=      5-min Rain = 0
KCR2 080857Z 03006KT 03/02 A3023 RMK A01 T00280016  RH  092%=      5-min Rain = 0.01
KCR2 080858Z 04006KT 03/02 A3023 RMK A01 T00280016  RH  092%=      5-min Rain = 0
KCR2 080859Z 03005KT 03/02 A3023 RMK A01 T00270016  RH  092%=      5-min Rain = 0
KCR2 080900Z 03004KT 03/02 A3023 RMK A01 T00270017  RH  093%=      5-min Rain = 0.01
KCR2 080901Z 03006KT 03/02 A3023 RMK A01 T00270017  RH  093%=      5-min Rain = 0
KCR2 080902Z 03006KT 03/02 A3023 RMK A01 T00270016  RH  093%=      5-min Rain = 0
KCR2 080903Z 04007KT 03/02 A3023 RMK A01 T00260015  RH  092%=      5-min Rain = 0.01
KCR2 080904Z 04006KT 03/02 A3023 RMK A01 T00260015  RH  092%=      5-min Rain = 0
KCR2 080905Z 04006KT 03/02 A3023 RMK A01 T00260015  RH  092%=      5-min Rain = 0
KCR2 080906Z 04006KT 03/02 A3023 RMK A01 T00260015  RH  092%=      5-min Rain = 0
KCR2 080907Z 04005KT 03/02 A3023 RMK A01 T00260015  RH  093%=      5-min Rain = 0
KCR2 080908Z 04006KT 03/02 A3023 RMK A01 T00260015  RH  093%=      5-min Rain = 0
KCR2 080909Z 04005KT 03/02 A3023 RMK A01 T00260016  RH  093%=      5-min Rain = 0
KCR2 080910Z 04005KT 03/02 A3023 RMK A01 T00260016  RH  093%=      5-min Rain = 0
KCR2 080911Z 04005KT 03/02 A3023 RMK A01 T00260016  RH  093%=      5-min Rain = 0.01
KCR2 080912Z 03005KT 03/02 A3023 RMK A01 T00260016  RH  093%=      5-min Rain = 0
KCR2 080913Z 04004KT 03/02 A3023 RMK A01 T00260016  RH  093%=      5-min Rain = 0
KCR2 080914Z 04004KT 03/02 A3023 RMK A01 T00260016  RH  093%=      5-min Rain = 0
KCR2 080915Z 04004KT 03/02 A3023 RMK A01 T00260017  RH  094%=      5-min Rain = 0
KCR2 080916Z 04004KT 03/02 A3023 RMK A01 T00260017  RH  094%=      5-min Rain = 0
KCR2 080917Z 04005KT 03/02 A3023 RMK A01 T00260017  RH  094%=      5-min Rain = 0
KCR2 080918Z 04004KT 03/02 A3023 RMK A01 T00260017  RH  094%=      5-min Rain = 0
KCR2 080919Z 04004KT 03/02 A3023 RMK A01 T00260017  RH  094%=      5-min Rain = 0
KCR2 080920Z 04003KT 03/02 A3023 RMK A01 T00260018  RH  094%=      5-min Rain = 0
KCR2 080921Z 03004KT 03/02 A3023 RMK A01 T00260018  RH  094%=      5-min Rain = 0
KCR2 080922Z 03004KT 03/02 A3023 RMK A01 T00260018  RH  094%=      5-min Rain = 0
KCR2 080923Z 03004KT 03/02 A3023 RMK A01 T00260018  RH  094%=      5-min Rain = 0
KCR2 080924Z 03005KT 03/02 A3023 RMK A01 T00260018  RH  094%=      5-min Rain = 0
KCR2 080925Z 02005KT 03/02 A3023 RMK A01 T00260018  RH  094%=      5-min Rain = 0
KCR2 080926Z 01004KT 03/02 A3023 RMK A01 T00260018  RH  094%=      5-min Rain = 0
KCR2 080927Z 01003KT 03/02 A3024 RMK A01 T00260018  RH  094%=      5-min Rain = 0
KCR2 080928Z 01004KT 03/02 A3024 RMK A01 T00270019  RH  095%=      5-min Rain = 0
KCR2 080929Z 01004KT 03/02 A3024 RMK A01 T00270019  RH  095%=      5-min Rain = 0
KCR2 080930Z 01004KT 03/02 A3024 RMK A01 T00260019  RH  095%=      5-min Rain = 0
KCR2 080931Z 36004KT 03/02 A3024 RMK A01 T00260019  RH  095%=      5-min Rain = 0
KCR2 080932Z 35004KT 03/02 A3024 RMK A01 T00270019  RH  095%=      5-min Rain = 0
KCR2 080933Z 35004KT 03/02 A3024 RMK A01 T00260019  RH  095%=      5-min Rain = 0
KCR2 080934Z 35004KT 03/02 A3024 RMK A01 T00270020  RH  095%=      5-min Rain = 0
KCR2 080935Z 35004KT 03/02 A3024 RMK A01 T00260020  RH  095%=      5-min Rain = 0
KCR2 080936Z 35004KT 03/02 A3024 RMK A01 T00270020  RH  095%=      5-min Rain = 0
KCR2 080937Z 00005KT 03/02 A3023 RMK A01 T00270020  RH  096%=      5-min Rain = 0
KCR2 080938Z 00004KT 03/02 A3023 RMK A01 T00260020  RH  096%=      5-min Rain = 0
KCR2 080939Z 36003KT 03/02 A3023 RMK A01 T00260020  RH  096%=      5-min Rain = 0
KCR2 080940Z 36004KT 03/02 A3023 RMK A01 T00270021  RH  096%=      5-min Rain = 0.01
KCR2 080941Z 00003KT 03/02 A3023 RMK A01 T00270021  RH  096%=      5-min Rain = 0
KCR2 080942Z 01003KT 03/02 A3023 RMK A01 T00270021  RH  096%=      5-min Rain = 0
KCR2 080943Z 02003KT 03/02 A3023 RMK A01 T00270021  RH  096%=      5-min Rain = 0
KCR2 080944Z 02005KT 03/02 A3023 RMK A01 T00280022  RH  096%=      5-min Rain = 0
KCR2 080945Z 03004KT 03/02 A3023 RMK A01 T00270021  RH  096%=      5-min Rain = 0
KCR2 080946Z 02006KT 03/02 A3023 RMK A01 T00270022  RH  096%=      5-min Rain = 0
KCR2 080947Z 02009KT 03/02 A3023 RMK A01 T00270021  RH  096%=      5-min Rain = 0
KCR2 080948Z 02007KT 03/02 A3023 RMK A01 T00260019  RH  095%=      5-min Rain = 0
KCR2 080949Z 02007KT 03/02 A3023 RMK A01 T00260019  RH  095%=      5-min Rain = 0
KCR2 080950Z 03007KT 03/02 A3023 RMK A01 T00260019  RH  095%=      5-min Rain = 0
KCR2 080951Z 02006KT 03/02 A3023 RMK A01 T00260019  RH  095%=      5-min Rain = 0
KCR2 080952Z 02006KT 03/02 A3023 RMK A01 T00260018  RH  095%=      5-min Rain = 0
KCR2 080953Z 02006KT 03/02 A3023 RMK A01 T00260019  RH  095%=      5-min Rain = 0
KCR2 080954Z 02007KT 03/02 A3023 RMK A01 T00260019  RH  095%=      5-min Rain = 0
KCR2 080955Z 01008KT 03/02 A3023 RMK A01 T00260018  RH  095%=      5-min Rain = 0
KCR2 080956Z 02006KT 03/02 A3023 RMK A01 T00250018  RH  095%=      5-min Rain = 0
KCR2 080957Z 03006KT 03/02 A3023 RMK A01 T00250018  RH  095%=      5-min Rain = 0
KCR2 080958Z 03006KT 03/02 A3023 RMK A01 T00260018  RH  095%=      5-min Rain = 0
KCR2 080959Z 03007KT 03/02 A3023 RMK A01 T00250018  RH  095%=      5-min Rain = 0
KCR2 081000Z 03006KT 03/02 A3022 RMK A01 T00260018  RH  095%=      5-min Rain = 0
KCR2 081001Z 03008KT 03/02 A3022 RMK A01 T00260018  RH  095%=      5-min Rain = 0
KCR2 081002Z 04007KT 03/02 A3022 RMK A01 T00250017  RH  094%=      5-min Rain = 0
KCR2 081003Z 04007KT 03/02 A3022 RMK A01 T00250017  RH  094%=      5-min Rain = 0
KCR2 081004Z 04008KT 03/02 A3022 RMK A01 T00250017  RH  094%=      5-min Rain = 0
KCR2 081005Z 04007KT 03/02 A3022 RMK A01 T00250017  RH  094%=      5-min Rain = 0
KCR2 081006Z 04007KT 03/02 A3022 RMK A01 T00250016  RH  094%=      5-min Rain = 0
KCR2 081007Z 04006KT 03/02 A3022 RMK A01 T00250017  RH  094%=      5-min Rain = 0
KCR2 081008Z 04006KT 03/02 A3022 RMK A01 T00250017  RH  095%=      5-min Rain = 0
KCR2 081009Z 04006KT 03/02 A3022 RMK A01 T00250017  RH  095%=      5-min Rain = 0
KCR2 081010Z 03006KT 03/02 A3022 RMK A01 T00250017  RH  095%=      5-min Rain = 0
KCR2 081011Z 03006KT 02/02 A3022 RMK A01 T00240017  RH  095%=      5-min Rain = 0
KCR2 081012Z 04006KT 03/02 A3022 RMK A01 T00250018  RH  095%=      5-min Rain = 0
KCR2 081013Z 03006KT 02/02 A3022 RMK A01 T00240017  RH  095%=      5-min Rain = 0
KCR2 081014Z 04005KT 02/02 A3022 RMK A01 T00240017  RH  095%=      5-min Rain = 0
KCR2 081015Z 04005KT 02/02 A3022 RMK A01 T00240018  RH  095%=      5-min Rain = 0
KCR2 081016Z 03005KT 02/02 A3022 RMK A01 T00240018  RH  096%=      5-min Rain = 0
KCR2 081017Z 03005KT 03/02 A3022 RMK A01 T00250018  RH  096%=      5-min Rain = 0.01
KCR2 081018Z 04004KT 03/02 A3022 RMK A01 T00250018  RH  096%=      5-min Rain = 0
KCR2 081019Z 04004KT 03/02 A3022 RMK A01 T00250019  RH  096%=      5-min Rain = 0
KCR2 081020Z 02003KT 03/02 A3022 RMK A01 T00250019  RH  096%=      5-min Rain = 0
KCR2 081021Z 01003KT 03/02 A3022 RMK A01 T00250019  RH  096%=      5-min Rain = 0
KCR2 081022Z 02005KT 03/02 A3023 RMK A01 T00250019  RH  096%=      5-min Rain = 0
KCR2 081023Z 02004KT 03/02 A3023 RMK A01 T00250019  RH  096%=      5-min Rain = 0
KCR2 081024Z 01005KT 03/02 A3023 RMK A01 T00250019  RH  096%=      5-min Rain = 0
KCR2 081025Z 01005KT 03/02 A3023 RMK A01 T00250019  RH  096%=      5-min Rain = 0
KCR2 081026Z 02004KT 03/02 A3023 RMK A01 T00250019  RH  096%=      5-min Rain = 0
KCR2 081027Z 01004KT 03/02 A3023 RMK A01 T00250019  RH  096%=      5-min Rain = 0
KCR2 081028Z 01005KT 03/02 A3023 RMK A01 T00250019  RH  096%=      5-min Rain = 0
KCR2 081029Z 02004KT 03/02 A3023 RMK A01 T00250019  RH  096%=      5-min Rain = 0
KCR2 081030Z 02005KT 03/02 A3023 RMK A01 T00250019  RH  096%=      5-min Rain = 0
KCR2 081031Z 02004KT 03/02 A3023 RMK A01 T00250019  RH  096%=      5-min Rain = 0
KCR2 081032Z 36003KT 03/02 A3023 RMK A01 T00250019  RH  096%=      5-min Rain = 0
KCR2 081033Z 35003KT 03/02 A3023 RMK A01 T00260019  RH  096%=      5-min Rain = 0
KCR2 081034Z 00004KT 03/02 A3023 RMK A01 T00260020  RH  096%=      5-min Rain = 0
KCR2 081035Z 01004KT 03/02 A3023 RMK A01 T00260020  RH  096%=      5-min Rain = 0
KCR2 081036Z 01004KT 03/02 A3023 RMK A01 T00260019  RH  096%=      5-min Rain = 0
KCR2 081037Z 01004KT 03/02 A3023 RMK A01 T00260019  RH  096%=      5-min Rain = 0
KCR2 081038Z 36005KT 03/02 A3023 RMK A01 T00250019  RH  096%=      5-min Rain = 0
KCR2 081039Z 01005KT 03/02 A3023 RMK A01 T00260019  RH  096%=      5-min Rain = 0
KCR2 081040Z 01005KT 03/02 A3023 RMK A01 T00250019  RH  095%=      5-min Rain = 0
KCR2 081041Z 01004KT 03/02 A3023 RMK A01 T00260019  RH  095%=      5-min Rain = 0
KCR2 081042Z 01004KT 03/02 A3023 RMK A01 T00260019  RH  095%=      5-min Rain = 0
KCR2 081043Z 00004KT 03/02 A3023 RMK A01 T00260019  RH  095%=      5-min Rain = 0
KCR2 081044Z 00004KT 03/02 A3023 RMK A01 T00260019  RH  095%=      5-min Rain = 0
KCR2 081045Z 00004KT 03/02 A3023 RMK A01 T00260018  RH  095%=      5-min Rain = 0
KCR2 081046Z 00004KT 03/02 A3023 RMK A01 T00250019  RH  095%=      5-min Rain = 0
KCR2 081047Z 36004KT 03/02 A3023 RMK A01 T00260019  RH  095%=      5-min Rain = 0
KCR2 081048Z 36004KT 03/02 A3023 RMK A01 T00260019  RH  096%=      5-min Rain = 0
KCR2 081049Z 00004KT 03/02 A3022 RMK A01 T00260019  RH  096%=      5-min Rain = 0
KCR2 081050Z 00004KT 03/02 A3022 RMK A01 T00260019  RH  096%=      5-min Rain = 0
KCR2 081051Z 01004KT 03/02 A3022 RMK A01 T00260019  RH  096%=      5-min Rain = 0
KCR2 081052Z 00004KT 03/02 A3022 RMK A01 T00260019  RH  096%=      5-min Rain = 0
KCR2 081053Z 01004KT 03/02 A3022 RMK A01 T00260019  RH  096%=      5-min Rain = 0
KCR2 081054Z 00006KT 03/02 A3022 RMK A01 T00260020  RH  096%=      5-min Rain = 0
KCR2 081055Z 01005KT 03/02 A3022 RMK A01 T00260020  RH  096%=      5-min Rain = 0
KCR2 081056Z 00004KT 03/02 A3022 RMK A01 T00260020  RH  096%=      5-min Rain = 0
KCR2 081057Z 01004KT 03/02 A3022 RMK A01 T00260020  RH  096%=      5-min Rain = 0
KCR2 081058Z 01004KT 03/02 A3022 RMK A01 T00260020  RH  096%=      5-min Rain = 0
KCR2 081059Z 02004KT 03/02 A3023 RMK A01 T00260020  RH  096%=      5-min Rain = 0
KCR2 081100Z 01004KT 03/02 A3023 RMK A01 T00260020  RH  096%=      5-min Rain = 0
KCR2 081101Z 02003KT 03/02 A3023 RMK A01 T00260021  RH  096%=      5-min Rain = 0
KCR2 081102Z 01003KT 03/02 A3023 RMK A01 T00260021  RH  096%=      5-min Rain = 0
KCR2 081103Z 01003KT 03/02 A3023 RMK A01 T00260021  RH  096%=      5-min Rain = 0
KCR2 081104Z 01004KT 03/02 A3023 RMK A01 T00260021  RH  096%=      5-min Rain = 0
KCR2 081105Z 02005KT 03/02 A3023 RMK A01 T00270021  RH  096%=      5-min Rain = 0
KCR2 081106Z 01005KT 03/02 A3023 RMK A01 T00270021  RH  096%=      5-min Rain = 0
KCR2 081107Z 02005KT 03/02 A3023 RMK A01 T00270021  RH  096%=      5-min Rain = 0
KCR2 081108Z 02006KT 03/02 A3023 RMK A01 T00260021  RH  096%=      5-min Rain = 0
KCR2 081109Z 01005KT 03/02 A3022 RMK A01 T00270021  RH  096%=      5-min Rain = 0
KCR2 081110Z 02006KT 03/02 A3022 RMK A01 T00260021  RH  096%=      5-min Rain = 0
KCR2 081111Z 02006KT 03/02 A3022 RMK A01 T00270021  RH  096%=      5-min Rain = 0
KCR2 081112Z 02005KT 03/02 A3022 RMK A01 T00270021  RH  096%=      5-min Rain = 0
KCR2 081113Z 01005KT 03/02 A3022 RMK A01 T00270021  RH  096%=      5-min Rain = 0
KCR2 081114Z 02005KT 03/02 A3022 RMK A01 T00270021  RH  096%=      5-min Rain = 0
KCR2 081115Z 02005KT 03/02 A3022 RMK A01 T00270021  RH  096%=      5-min Rain = 0
KCR2 081116Z 02005KT 03/02 A3022 RMK A01 T00270021  RH  096%=      5-min Rain = 0
KCR2 081117Z 02005KT 03/02 A3023 RMK A01 T00270021  RH  096%=      5-min Rain = 0
KCR2 081118Z 03005KT 03/02 A3023 RMK A01 T00270020  RH  096%=      5-min Rain = 0.01
KCR2 081119Z 03006KT 03/02 A3023 RMK A01 T00270020  RH  095%=      5-min Rain = 0
KCR2 081120Z 02005KT 03/02 A3023 RMK A01 T00270020  RH  095%=      5-min Rain = 0
KCR2 081121Z 02008KT 03/02 A3023 RMK A01 T00270020  RH  095%=      5-min Rain = 0
KCR2 081122Z 02007KT 03/02 A3023 RMK A01 T00270019  RH  094%=      5-min Rain = 0
KCR2 081123Z 02007KT 03/02 A3023 RMK A01 T00270018  RH  094%=      5-min Rain = 0
KCR2 081124Z 02006KT 03/02 A3023 RMK A01 T00270017  RH  093%=      5-min Rain = 0
KCR2 081125Z 02007KT 03/02 A3023 RMK A01 T00270017  RH  093%=      5-min Rain = 0
KCR2 081126Z 03006KT 03/02 A3023 RMK A01 T00270017  RH  093%=      5-min Rain = 0
KCR2 081127Z 02005KT 03/02 A3023 RMK A01 T00270017  RH  093%=      5-min Rain = 0
KCR2 081128Z 02006KT 03/02 A3023 RMK A01 T00270017  RH  093%=      5-min Rain = 0
KCR2 081129Z 02005KT 03/02 A3023 RMK A01 T00270017  RH  093%=      5-min Rain = 0
KCR2 081130Z 03005KT 03/02 A3023 RMK A01 T00270018  RH  093%=      5-min Rain = 0
KCR2 081131Z 03006KT 03/02 A3023 RMK A01 T00280019  RH  094%=      5-min Rain = 0
KCR2 081132Z 02007KT 03/02 A3023 RMK A01 T00270018  RH  094%=      5-min Rain = 0
KCR2 081133Z 02007KT 03/02 A3023 RMK A01 T00270018  RH  094%=      5-min Rain = 0
KCR2 081134Z 02007KT 03/02 A3023 RMK A01 T00270018  RH  094%=      5-min Rain = 0
KCR2 081135Z 03007KT 03/02 A3023 RMK A01 T00270018  RH  094%=      5-min Rain = 0
KCR2 081136Z 02006KT 03/02 A3023 RMK A01 T00270017  RH  094%=      5-min Rain = 0
KCR2 081137Z 03007KT 03/02 A3023 RMK A01 T00260017  RH  094%=      5-min Rain = 0
KCR2 081138Z 02006KT 03/02 A3023 RMK A01 T00260017  RH  094%=      5-min Rain = 0
KCR2 081139Z 03006KT 03/02 A3023 RMK A01 T00270018  RH  094%=      5-min Rain = 0
KCR2 081140Z 03005KT 03/02 A3023 RMK A01 T00260018  RH  094%=      5-min Rain = 0
KCR2 081141Z 03006KT 03/02 A3023 RMK A01 T00260018  RH  094%=      5-min Rain = 0
KCR2 081142Z 03005KT 03/02 A3023 RMK A01 T00260019  RH  095%=      5-min Rain = 0
KCR2 081143Z 04007KT 03/02 A3023 RMK A01 T00270019  RH  095%=      5-min Rain = 0
KCR2 081144Z 04006KT 03/02 A3023 RMK A01 T00270019  RH  095%=      5-min Rain = 0
KCR2 081145Z 03006KT 03/02 A3023 RMK A01 T00260019  RH  095%=      5-min Rain = 0
KCR2 081146Z 03006KT 03/02 A3023 RMK A01 T00260019  RH  095%=      5-min Rain = 0
KCR2 081147Z 03006KT 03/02 A3024 RMK A01 T00270019  RH  095%=      5-min Rain = 0
KCR2 081148Z 03005KT 03/02 A3024 RMK A01 T00270019  RH  095%=      5-min Rain = 0
KCR2 081149Z 03006KT 03/02 A3024 RMK A01 T00270019  RH  095%=      5-min Rain = 0
KCR2 081150Z 03005KT 03/02 A3024 RMK A01 T00260019  RH  095%=      5-min Rain = 0
KCR2 081151Z 02005KT 03/02 A3024 RMK A01 T00260019  RH  095%=      5-min Rain = 0
KCR2 081152Z 03006KT 03/02 A3024 RMK A01 T00270020  RH  095%=      5-min Rain = 0
KCR2 081153Z 02005KT 03/02 A3024 RMK A01 T00270020  RH  095%=      5-min Rain = 0
KCR2 081154Z 01004KT 03/02 A3024 RMK A01 T00270019  RH  095%=      5-min Rain = 0
KCR2 081155Z 02005KT 03/02 A3024 RMK A01 T00270020  RH  095%=      5-min Rain = 0
KCR2 081156Z 01004KT 03/02 A3025 RMK A01 T00270021  RH  095%=      5-min Rain = 0
KCR2 081157Z 01005KT 03/02 A3025 RMK A01 T00280021  RH  095%=      5-min Rain = 0
KCR2 081158Z 02007KT 03/02 A3025 RMK A01 T00270020  RH  095%=      5-min Rain = 0
KCR2 081159Z 02005KT 03/02 A3025 RMK A01 T00270020  RH  095%=      5-min Rain = 0
KCR2 081200Z 02006KT 03/02 A3025 RMK A01 T00270020  RH  095%=      5-min Rain = 0
KCR2 081201Z 01005KT 03/02 A3025 RMK A01 T00270020  RH  095%=      5-min Rain = 0
KCR2 081202Z 36006KT 03/02 A3025 RMK A01 T00270020  RH  095%=      5-min Rain = 0
KCR2 081203Z 36006KT 03/02 A3025 RMK A01 T00270020  RH  095%=      5-min Rain = 0
KCR2 081204Z 35009KT 03/02 A3025 RMK A01 T00270019  RH  095%=      5-min Rain = 0
KCR2 081205Z 36010KT 03/02 A3025 RMK A01 T00260018  RH  094%=      5-min Rain = 0
KCR2 081206Z 00010KT 03/02 A3025 RMK A01 T00270017  RH  094%=      5-min Rain = 0
KCR2 081207Z 01009KT 03/02 A3025 RMK A01 T00260017  RH  093%=      5-min Rain = 0
KCR2 081208Z 01008KT 03/02 A3025 RMK A01 T00270017  RH  093%=      5-min Rain = 0
KCR2 081209Z 02009KT 03/02 A3025 RMK A01 T00270018  RH  094%=      5-min Rain = 0
KCR2 081210Z 01007KT 03/02 A3025 RMK A01 T00270018  RH  094%=      5-min Rain = 0.01
KCR2 081211Z 01006KT 03/02 A3025 RMK A01 T00270017  RH  094%=      5-min Rain = 0
KCR2 081212Z 00006KT 03/02 A3026 RMK A01 T00270018  RH  094%=      5-min Rain = 0
KCR2 081213Z 01007KT 03/02 A3026 RMK A01 T00270018  RH  094%=      5-min Rain = 0
KCR2 081214Z 01008KT 03/02 A3026 RMK A01 T00270017  RH  093%=      5-min Rain = 0
KCR2 081215Z 01007KT 03/02 A3026 RMK A01 T00270017  RH  093%=      5-min Rain = 0
KCR2 081216Z 01007KT 03/02 A3026 RMK A01 T00270017  RH  093%=      5-min Rain = 0
KCR2 081217Z 01006KT 03/02 A3026 RMK A01 T00260016  RH  093%=      5-min Rain = 0
KCR2 081218Z 01007KT 03/02 A3026 RMK A01 T00260017  RH  093%=      5-min Rain = 0
KCR2 081219Z 01006KT 03/02 A3026 RMK A01 T00260017  RH  093%=      5-min Rain = 0
KCR2 081220Z 01006KT 03/02 A3026 RMK A01 T00260017  RH  093%=      5-min Rain = 0
KCR2 081221Z 01007KT 03/02 A3026 RMK A01 T00260017  RH  094%=      5-min Rain = 0
KCR2 081222Z 01005KT 03/02 A3026 RMK A01 T00260017  RH  094%=      5-min Rain = 0
KCR2 081223Z 01006KT 03/02 A3026 RMK A01 T00270017  RH  094%=      5-min Rain = 0
KCR2 081224Z 01007KT 03/02 A3026 RMK A01 T00260018  RH  094%=      5-min Rain = 0
KCR2 081225Z 02006KT 03/02 A3026 RMK A01 T00270017  RH  094%=      5-min Rain = 0
KCR2 081226Z 01007KT 03/02 A3026 RMK A01 T00270017  RH  094%=      5-min Rain = 0
KCR2 081227Z 01008KT 03/02 A3026 RMK A01 T00270017  RH  093%=      5-min Rain = 0
KCR2 081228Z 01007KT 03/02 A3026 RMK A01 T00270016  RH  093%=      5-min Rain = 0
KCR2 081229Z 02007KT 03/02 A3026 RMK A01 T00260016  RH  093%=      5-min Rain = 0
KCR2 081230Z 01008KT 03/02 A3026 RMK A01 T00260016  RH  093%=      5-min Rain = 0
KCR2 081231Z 01009KT 03/02 A3026 RMK A01 T00260015  RH  092%=      5-min Rain = 0
KCR2 081232Z 01008KT 03/01 A3026 RMK A01 T00270014  RH  092%=      5-min Rain = 0
KCR2 081233Z 02006KT 03/01 A3026 RMK A01 T00260014  RH  092%=      5-min Rain = 0
KCR2 081234Z 03006KT 03/02 A3026 RMK A01 T00270015  RH  092%=      5-min Rain = 0
KCR2 081235Z 03007KT 03/02 A3026 RMK A01 T00260015  RH  093%=      5-min Rain = 0
KCR2 081236Z 02008KT 03/02 A3025 RMK A01 T00260015  RH  092%=      5-min Rain = 0
KCR2 081237Z 02007KT 03/02 A3026 RMK A01 T00260015  RH  092%=      5-min Rain = 0
KCR2 081238Z 02007KT 03/01 A3026 RMK A01 T00260014  RH  092%=      5-min Rain = 0
KCR2 081239Z 02006KT 03/01 A3026 RMK A01 T00260014  RH  092%=      5-min Rain = 0
KCR2 081240Z 02006KT 03/02 A3026 RMK A01 T00260015  RH  092%=      5-min Rain = 0
KCR2 081241Z 02008KT 03/01 A3026 RMK A01 T00260014  RH  092%=      5-min Rain = 0
KCR2 081242Z 02007KT 03/01 A3026 RMK A01 T00260014  RH  092%=      5-min Rain = 0
KCR2 081243Z 02006KT 03/01 A3026 RMK A01 T00260014  RH  091%=      5-min Rain = 0
KCR2 081244Z 01007KT 03/01 A3026 RMK A01 T00260014  RH  091%=      5-min Rain = 0
KCR2 081245Z 01007KT 03/01 A3026 RMK A01 T00260014  RH  092%=      5-min Rain = 0
KCR2 081246Z 02007KT 03/01 A3026 RMK A01 T00260014  RH  092%=      5-min Rain = 0
KCR2 081247Z 02007KT 03/01 A3026 RMK A01 T00260014  RH  092%=      5-min Rain = 0
KCR2 081248Z 02006KT 03/01 A3026 RMK A01 T00260014  RH  092%=      5-min Rain = 0
KCR2 081249Z 02005KT 03/01 A3026 RMK A01 T00260014  RH  092%=      5-min Rain = 0
KCR2 081250Z 02007KT 03/02 A3026 RMK A01 T00260015  RH  093%=      5-min Rain = 0
KCR2 081251Z 01006KT 03/02 A3026 RMK A01 T00260015  RH  092%=      5-min Rain = 0
KCR2 081252Z 01007KT 03/02 A3026 RMK A01 T00260015  RH  092%=      5-min Rain = 0
KCR2 081253Z 02008KT 03/02 A3026 RMK A01 T00260015  RH  092%=      5-min Rain = 0
KCR2 081254Z 02008KT 03/01 A3026 RMK A01 T00260014  RH  092%=      5-min Rain = 0
KCR2 081255Z 02006KT 03/01 A3026 RMK A01 T00260014  RH  092%=      5-min Rain = 0
KCR2 081256Z 02005KT 03/01 A3026 RMK A01 T00260014  RH  092%=      5-min Rain = 0
KCR2 081257Z 01006KT 03/02 A3026 RMK A01 T00260015  RH  093%=      5-min Rain = 0
KCR2 081258Z 02006KT 03/02 A3027 RMK A01 T00260015  RH  093%=      5-min Rain = 0
KCR2 081259Z 02006KT 03/02 A3027 RMK A01 T00260016  RH  093%=      5-min Rain = 0
KCR2 081300Z 02007KT 03/02 A3027 RMK A01 T00260016  RH  093%=      5-min Rain = 0
KCR2 081301Z 02007KT 03/02 A3027 RMK A01 T00260016  RH  093%=      5-min Rain = 0
KCR2 081302Z 02007KT 03/02 A3027 RMK A01 T00260016  RH  093%=      5-min Rain = 0
KCR2 081303Z 03007KT 03/02 A3027 RMK A01 T00260016  RH  093%=      5-min Rain = 0
KCR2 081304Z 03006KT 03/02 A3027 RMK A01 T00260017  RH  094%=      5-min Rain = 0
KCR2 081305Z 03007KT 03/02 A3027 RMK A01 T00260016  RH  094%=      5-min Rain = 0
KCR2 081306Z 03007KT 03/02 A3027 RMK A01 T00250016  RH  094%=      5-min Rain = 0
KCR2 081307Z 02007KT 03/02 A3027 RMK A01 T00250016  RH  094%=      5-min Rain = 0
KCR2 081308Z 02007KT 03/02 A3027 RMK A01 T00250016  RH  094%=      5-min Rain = 0
KCR2 081309Z 02007KT 03/02 A3027 RMK A01 T00250016  RH  094%=      5-min Rain = 0
KCR2 081310Z 02006KT 03/02 A3027 RMK A01 T00250016  RH  094%=      5-min Rain = 0
KCR2 081311Z 02008KT 03/02 A3027 RMK A01 T00250017  RH  094%=      5-min Rain = 0
KCR2 081312Z 02007KT 03/02 A3027 RMK A01 T00250017  RH  094%=      5-min Rain = 0
KCR2 081313Z 02007KT 03/02 A3027 RMK A01 T00250016  RH  094%=      5-min Rain = 0
KCR2 081314Z 02007KT 03/02 A3027 RMK A01 T00250017  RH  094%=      5-min Rain = 0
KCR2 081315Z 02006KT 03/02 A3027 RMK A01 T00250017  RH  094%=      5-min Rain = 0
KCR2 081316Z 02006KT 03/02 A3027 RMK A01 T00250017  RH  094%=      5-min Rain = 0
KCR2 081317Z 03005KT 03/02 A3027 RMK A01 T00250018  RH  095%=      5-min Rain = 0
KCR2 081318Z 03005KT 03/02 A3027 RMK A01 T00250017  RH  095%=      5-min Rain = 0
KCR2 081319Z 03005KT 03/02 A3027 RMK A01 T00250018  RH  095%=      5-min Rain = 0
KCR2 081320Z 04006KT 03/02 A3027 RMK A01 T00250018  RH  095%=      5-min Rain = 0
KCR2 081321Z 04007KT 03/02 A3027 RMK A01 T00250017  RH  095%=      5-min Rain = 0
KCR2 081322Z 04005KT 03/02 A3027 RMK A01 T00250017  RH  094%=      5-min Rain = 0
KCR2 081323Z 04006KT 03/02 A3027 RMK A01 T00250016  RH  094%=      5-min Rain = 0
KCR2 081324Z 04005KT 03/02 A3027 RMK A01 T00250016  RH  094%=      5-min Rain = 0
KCR2 081325Z 04006KT 03/02 A3027 RMK A01 T00250016  RH  094%=      5-min Rain = 0
KCR2 081326Z 05005KT 03/02 A3027 RMK A01 T00250016  RH  094%=      5-min Rain = 0
KCR2 081327Z 04005KT 03/02 A3027 RMK A01 T00250017  RH  095%=      5-min Rain = 0
KCR2 081328Z 05006KT 03/02 A3027 RMK A01 T00250017  RH  095%=      5-min Rain = 0
KCR2 081329Z 05005KT 03/02 A3027 RMK A01 T00250017  RH  095%=      5-min Rain = 0
KCR2 081330Z 05004KT 03/02 A3027 RMK A01 T00250017  RH  095%=      5-min Rain = 0
KCR2 081331Z 04005KT 03/02 A3027 RMK A01 T00250018  RH  095%=      5-min Rain = 0
KCR2 081332Z 04006KT 03/02 A3027 RMK A01 T00250017  RH  095%=      5-min Rain = 0
KCR2 081333Z 04005KT 03/02 A3027 RMK A01 T00250017  RH  095%=      5-min Rain = 0
KCR2 081334Z 04005KT 03/02 A3027 RMK A01 T00250017  RH  095%=      5-min Rain = 0
KCR2 081335Z 04005KT 03/02 A3027 RMK A01 T00250017  RH  095%=      5-min Rain = 0
KCR2 081336Z 03005KT 03/02 A3027 RMK A01 T00250017  RH  095%=      5-min Rain = 0
KCR2 081337Z 04005KT 03/02 A3027 RMK A01 T00250017  RH  095%=      5-min Rain = 0
KCR2 081338Z 04006KT 03/02 A3028 RMK A01 T00250017  RH  095%=      5-min Rain = 0
KCR2 081339Z 04005KT 03/02 A3028 RMK A01 T00250017  RH  094%=      5-min Rain = 0
KCR2 081340Z 03004KT 03/02 A3028 RMK A01 T00250017  RH  094%=      5-min Rain = 0
KCR2 081341Z 03004KT 03/02 A3028 RMK A01 T00250017  RH  095%=      5-min Rain = 0
KCR2 081342Z 02004KT 03/02 A3028 RMK A01 T00250017  RH  094%=      5-min Rain = 0
KCR2 081343Z 02005KT 03/02 A3028 RMK A01 T00250017  RH  094%=      5-min Rain = 0
KCR2 081344Z 02005KT 03/02 A3028 RMK A01 T00250017  RH  095%=      5-min Rain = 0
KCR2 081345Z 01004KT 03/02 A3028 RMK A01 T00250017  RH  095%=      5-min Rain = 0
KCR2 081346Z 01005KT 03/02 A3028 RMK A01 T00250018  RH  095%=      5-min Rain = 0
KCR2 081347Z 01006KT 03/02 A3028 RMK A01 T00260018  RH  095%=      5-min Rain = 0
KCR2 081348Z 02005KT 03/02 A3028 RMK A01 T00260018  RH  095%=      5-min Rain = 0
KCR2 081349Z 01005KT 03/02 A3028 RMK A01 T00260018  RH  095%=      5-min Rain = 0
KCR2 081350Z 02005KT 03/02 A3028 RMK A01 T00250018  RH  095%=      5-min Rain = 0
KCR2 081351Z 02005KT 03/02 A3028 RMK A01 T00250018  RH  095%=      5-min Rain = 0
KCR2 081352Z 02005KT 03/02 A3029 RMK A01 T00250018  RH  095%=      5-min Rain = 0
KCR2 081353Z 01005KT 03/02 A3029 RMK A01 T00250018  RH  095%=      5-min Rain = 0
KCR2 081354Z 02006KT 03/02 A3029 RMK A01 T00250018  RH  095%=      5-min Rain = 0
KCR2 081355Z 02006KT 03/02 A3029 RMK A01 T00250018  RH  095%=      5-min Rain = 0
KCR2 081356Z 01005KT 03/02 A3029 RMK A01 T00250018  RH  095%=      5-min Rain = 0
KCR2 081357Z 02005KT 03/02 A3029 RMK A01 T00250018  RH  096%=      5-min Rain = 0
KCR2 081358Z 01005KT 03/02 A3029 RMK A01 T00250018  RH  096%=      5-min Rain = 0
KCR2 081359Z 02005KT 03/02 A3029 RMK A01 T00250019  RH  096%=      5-min Rain = 0
KCR2 081400Z 02005KT 03/02 A3029 RMK A01 T00250019  RH  096%=      5-min Rain = 0
KCR2 081401Z 03005KT 03/02 A3029 RMK A01 T00250019  RH  096%=      5-min Rain = 0
KCR2 081402Z 02005KT 03/02 A3029 RMK A01 T00250019  RH  096%=      5-min Rain = 0
KCR2 081403Z 02006KT 03/02 A3029 RMK A01 T00250019  RH  096%=      5-min Rain = 0
KCR2 081404Z 02006KT 03/02 A3029 RMK A01 T00250019  RH  096%=      5-min Rain = 0
KCR2 081405Z 02005KT 03/02 A3029 RMK A01 T00250019  RH  096%=      5-min Rain = 0
KCR2 081406Z 02005KT 03/02 A3029 RMK A01 T00250019  RH  096%=      5-min Rain = 0
KCR2 081407Z 02005KT 03/02 A3029 RMK A01 T00250019  RH  096%=      5-min Rain = 0
KCR2 081408Z 02005KT 03/02 A3029 RMK A01 T00250019  RH  096%=      5-min Rain = 0
KCR2 081409Z 02004KT 03/02 A3029 RMK A01 T00250020  RH  096%=      5-min Rain = 0
KCR2 081410Z 02004KT 03/02 A3029 RMK A01 T00260020  RH  096%=      5-min Rain = 0
KCR2 081411Z 02004KT 03/02 A3029 RMK A01 T00260020  RH  096%=      5-min Rain = 0
KCR2 081412Z 02005KT 03/02 A3029 RMK A01 T00260020  RH  096%=      5-min Rain = 0
KCR2 081413Z 03004KT 03/02 A3029 RMK A01 T00250020  RH  096%=      5-min Rain = 0
KCR2 081414Z 02004KT 03/02 A3029 RMK A01 T00260020  RH  096%=      5-min Rain = 0
KCR2 081415Z 02005KT 03/02 A3029 RMK A01 T00260021  RH  096%=      5-min Rain = 0
KCR2 081416Z 02004KT 03/02 A3029 RMK A01 T00260021  RH  096%=      5-min Rain = 0
KCR2 081417Z 03004KT 03/02 A3029 RMK A01 T00260021  RH  096%=      5-min Rain = 0
KCR2 081418Z 03004KT 03/02 A3029 RMK A01 T00260020  RH  096%=      5-min Rain = 0
KCR2 081419Z 04005KT 03/02 A3029 RMK A01 T00260020  RH  096%=      5-min Rain = 0
KCR2 081420Z 04005KT 03/02 A3029 RMK A01 T00260020  RH  096%=      5-min Rain = 0
KCR2 081421Z 04004KT 03/02 A3029 RMK A01 T00260020  RH  096%=      5-min Rain = 0
KCR2 081422Z 03005KT 03/02 A3029 RMK A01 T00260020  RH  096%=      5-min Rain = 0
KCR2 081423Z 04005KT 03/02 A3029 RMK A01 T00260020  RH  096%=      5-min Rain = 0
KCR2 081424Z 04004KT 03/02 A3029 RMK A01 T00260020  RH  096%=      5-min Rain = 0
KCR2 081425Z 04004KT 03/02 A3029 RMK A01 T00260019  RH  096%=      5-min Rain = 0
KCR2 081426Z 05004KT 03/02 A3029 RMK A01 T00260020  RH  096%=      5-min Rain = 0
KCR2 081427Z 05004KT 03/02 A3029 RMK A01 T00260020  RH  096%=      5-min Rain = 0
KCR2 081428Z 04004KT 03/02 A3029 RMK A01 T00260020  RH  096%=      5-min Rain = 0
KCR2 081429Z 05004KT 03/02 A3029 RMK A01 T00260020  RH  096%=      5-min Rain = 0
KCR2 081430Z 05005KT 03/02 A3029 RMK A01 T00260020  RH  096%=      5-min Rain = 0
KCR2 081431Z 04005KT 03/02 A303 RMK A01 T00260020  RH  096%=      5-min Rain = 0
KCR2 081432Z 04004KT 03/02 A303 RMK A01 T00260020  RH  096%=      5-min Rain = 0
KCR2 081433Z 04004KT 03/02 A303 RMK A01 T00260020  RH  096%=      5-min Rain = 0
KCR2 081434Z 04004KT 03/02 A303 RMK A01 T00260020  RH  096%=      5-min Rain = 0
KCR2 081435Z 04006KT 03/02 A303 RMK A01 T00260020  RH  096%=      5-min Rain = 0
KCR2 081436Z 04005KT 03/02 A303 RMK A01 T00260020  RH  096%=      5-min Rain = 0
KCR2 081437Z 03005KT 03/02 A303 RMK A01 T00260019  RH  096%=      5-min Rain = 0
KCR2 081438Z 04004KT 03/02 A303 RMK A01 T00260020  RH  096%=      5-min Rain = 0
KCR2 081439Z 05005KT 03/02 A303 RMK A01 T00260020  RH  096%=      5-min Rain = 0
KCR2 081440Z 03004KT 03/02 A303 RMK A01 T00260020  RH  096%=      5-min Rain = 0
KCR2 081441Z 04005KT 03/02 A303 RMK A01 T00270021  RH  096%=      5-min Rain = 0
KCR2 081442Z 04005KT 03/02 A303 RMK A01 T00270022  RH  096%=      5-min Rain = 0
KCR2 081443Z 03004KT 03/02 A303 RMK A01 T00270021  RH  096%=      5-min Rain = 0
KCR2 081444Z 03004KT 03/02 A303 RMK A01 T00270021  RH  096%=      5-min Rain = 0
KCR2 081445Z 02004KT 03/02 A3031 RMK A01 T00270021  RH  096%=      5-min Rain = 0
KCR2 081446Z 01005KT 03/02 A3031 RMK A01 T00260021  RH  096%=      5-min Rain = 0
KCR2 081447Z 01005KT 03/02 A3031 RMK A01 T00270021  RH  096%=      5-min Rain = 0
KCR2 081448Z 01005KT 03/02 A3031 RMK A01 T00260021  RH  096%=      5-min Rain = 0
KCR2 081449Z 00005KT 03/02 A3031 RMK A01 T00270021  RH  096%=      5-min Rain = 0
KCR2 081450Z 01005KT 03/02 A3031 RMK A01 T00260021  RH  096%=      5-min Rain = 0
KCR2 081451Z 01006KT 03/02 A3031 RMK A01 T00270022  RH  096%=      5-min Rain = 0
KCR2 081452Z 02006KT 03/02 A3031 RMK A01 T00270021  RH  096%=      5-min Rain = 0
KCR2 081453Z 01005KT 03/02 A3031 RMK A01 T00270021  RH  096%=      5-min Rain = 0
KCR2 081454Z 02004KT 03/02 A3031 RMK A01 T00270020  RH  096%=      5-min Rain = 0
KCR2 081455Z 02005KT 03/02 A3031 RMK A01 T00270021  RH  095%=      5-min Rain = 0
KCR2 081456Z 00005KT 03/02 A3031 RMK A01 T00270021  RH  096%=      5-min Rain = 0
KCR2 081457Z 01005KT 03/02 A3031 RMK A01 T00280021  RH  095%=      5-min Rain = 0
KCR2 081458Z 02005KT 03/02 A3031 RMK A01 T00280021  RH  096%=      5-min Rain = 0
KCR2 081459Z 01004KT 03/02 A3031 RMK A01 T00280022  RH  096%=      5-min Rain = 0
KCR2 081500Z 02005KT 03/02 A3031 RMK A01 T00290023  RH  096%=      5-min Rain = 0
KCR2 081501Z 01006KT 03/02 A3031 RMK A01 T00290022  RH  096%=      5-min Rain = 0
KCR2 081502Z 01005KT 03/02 A3031 RMK A01 T00280022  RH  096%=      5-min Rain = 0
KCR2 081503Z 00006KT 03/02 A3031 RMK A01 T00290022  RH  096%=      5-min Rain = 0
KCR2 081504Z 00006KT 03/02 A3031 RMK A01 T00290023  RH  096%=      5-min Rain = 0
KCR2 081505Z 02005KT 03/02 A3031 RMK A01 T00290022  RH  096%=      5-min Rain = 0
KCR2 081506Z 01006KT 03/02 A3031 RMK A01 T00290023  RH  096%=      5-min Rain = 0
KCR2 081507Z 02005KT 03/02 A3031 RMK A01 T00290023  RH  096%=      5-min Rain = 0
KCR2 081508Z 02005KT 03/02 A3031 RMK A01 T00290023  RH  096%=      5-min Rain = 0
KCR2 081509Z 02007KT 03/02 A3031 RMK A01 T00290023  RH  096%=      5-min Rain = 0
KCR2 081510Z 02006KT 03/02 A3031 RMK A01 T00290022  RH  095%=      5-min Rain = 0
KCR2 081511Z 03006KT 03/02 A3032 RMK A01 T00290022  RH  095%=      5-min Rain = 0
KCR2 081512Z 02006KT 03/02 A3032 RMK A01 T00290021  RH  095%=      5-min Rain = 0
KCR2 081513Z 02006KT 03/02 A3032 RMK A01 T00290021  RH  094%=      5-min Rain = 0
KCR2 081514Z 01006KT 03/02 A3032 RMK A01 T00290021  RH  094%=      5-min Rain = 0
KCR2 081515Z 02006KT 03/02 A3032 RMK A01 T00290021  RH  094%=      5-min Rain = 0
KCR2 081516Z 02007KT 03/02 A3032 RMK A01 T00290020  RH  094%=      5-min Rain = 0
KCR2 081517Z 01006KT 03/02 A3032 RMK A01 T00290020  RH  094%=      5-min Rain = 0
KCR2 081518Z 01006KT 03/02 A3032 RMK A01 T00290020  RH  094%=      5-min Rain = 0
KCR2 081519Z 02006KT 03/02 A3032 RMK A01 T00290020  RH  094%=      5-min Rain = 0
KCR2 081520Z 02005KT 03/02 A3032 RMK A01 T00290021  RH  094%=      5-min Rain = 0
KCR2 081521Z 03005KT 03/02 A3032 RMK A01 T00300021  RH  094%=      5-min Rain = 0
KCR2 081522Z 02007KT 03/02 A3032 RMK A01 T00300021  RH  094%=      5-min Rain = 0
KCR2 081523Z 03006KT 03/02 A3032 RMK A01 T00300021  RH  094%=      5-min Rain = 0
KCR2 081524Z 02006KT 03/02 A3032 RMK A01 T00300021  RH  094%=      5-min Rain = 0
KCR2 081525Z 02005KT 03/02 A3032 RMK A01 T00300022  RH  094%=      5-min Rain = 0
KCR2 081526Z 03004KT 03/02 A3032 RMK A01 T00310023  RH  094%=      5-min Rain = 0
KCR2 081527Z 02006KT 03/02 A3032 RMK A01 T00310023  RH  094%=      5-min Rain = 0
KCR2 081528Z 02007KT 03/02 A3032 RMK A01 T00320023  RH  094%=      5-min Rain = 0
KCR2 081529Z 01006KT 03/02 A3032 RMK A01 T00310022  RH  094%=      5-min Rain = 0
KCR2 081530Z 01007KT 03/02 A3032 RMK A01 T00310021  RH  094%=      5-min Rain = 0
KCR2 081531Z 02006KT 03/02 A3032 RMK A01 T00310021  RH  094%=      5-min Rain = 0
KCR2 081532Z 02005KT 03/02 A3032 RMK A01 T00310021  RH  094%=      5-min Rain = 0
KCR2 081533Z 02006KT 03/02 A3032 RMK A01 T00310022  RH  094%=      5-min Rain = 0
KCR2 081534Z 02006KT 03/02 A3032 RMK A01 T00310021  RH  094%=      5-min Rain = 0
KCR2 081535Z 03006KT 03/02 A3032 RMK A01 T00310021  RH  093%=      5-min Rain = 0
KCR2 081536Z 02005KT 03/02 A3032 RMK A01 T00310021  RH  093%=      5-min Rain = 0
KCR2 081537Z 03006KT 03/02 A3032 RMK A01 T00310022  RH  094%=      5-min Rain = 0
KCR2 081538Z 02007KT 03/02 A3032 RMK A01 T00310022  RH  094%=      5-min Rain = 0
KCR2 081539Z 02007KT 03/02 A3032 RMK A01 T00310021  RH  093%=      5-min Rain = 0
KCR2 081540Z 01006KT 03/02 A3032 RMK A01 T00310020  RH  093%=      5-min Rain = 0
KCR2 081541Z 01005KT 03/02 A3032 RMK A01 T00310020  RH  093%=      5-min Rain = 0
KCR2 081542Z 01006KT 03/02 A3032 RMK A01 T00320021  RH  093%=      5-min Rain = 0
KCR2 081543Z 01005KT 03/02 A3032 RMK A01 T00320023  RH  094%=      5-min Rain = 0
KCR2 081544Z 02004KT 03/02 A3032 RMK A01 T00330024  RH  094%=      5-min Rain = 0
KCR2 081545Z 03004KT 03/03 A3032 RMK A01 T00330025  RH  094%=      5-min Rain = 0
KCR2 081546Z 04003KT 03/02 A3032 RMK A01 T00340024  RH  094%=      5-min Rain = 0
KCR2 081547Z 03005KT 03/03 A3032 RMK A01 T00340025  RH  094%=      5-min Rain = 0
KCR2 081548Z 04004KT 03/03 A3032 RMK A01 T00340025  RH  094%=      5-min Rain = 0
KCR2 081549Z 03005KT 03/02 A3032 RMK A01 T00340024  RH  093%=      5-min Rain = 0
KCR2 081550Z 02005KT 03/02 A3032 RMK A01 T00330022  RH  092%=      5-min Rain = 0
KCR2 081551Z 01005KT 03/02 A3032 RMK A01 T00330022  RH  093%=      5-min Rain = 0
KCR2 081552Z 00006KT 03/02 A3032 RMK A01 T00330024  RH  094%=      5-min Rain = 0
KCR2 081553Z 01007KT 03/02 A3032 RMK A01 T00330024  RH  094%=      5-min Rain = 0
KCR2 081554Z 01006KT 03/02 A3032 RMK A01 T00320023  RH  094%=      5-min Rain = 0
KCR2 081555Z 01008KT 03/02 A3032 RMK A01 T00320023  RH  094%=      5-min Rain = 0
KCR2 081556Z 01008KT 03/02 A3033 RMK A01 T00320022  RH  094%=      5-min Rain = 0
KCR2 081557Z 00006KT 03/02 A3033 RMK A01 T00320022  RH  093%=      5-min Rain = 0
KCR2 081558Z 02007KT 03/02 A3033 RMK A01 T00320023  RH  094%=      5-min Rain = 0
KCR2 081559Z 01006KT 03/02 A3033 RMK A01 T00320023  RH  094%=      5-min Rain = 0
KCR2 081600Z 01005KT 03/02 A3033 RMK A01 T00320024  RH  095%=      5-min Rain = 0
KCR2 081601Z 02007KT 03/03 A3033 RMK A01 T00320025  RH  095%=      5-min Rain = 0
KCR2 081602Z 02006KT 03/02 A3033 RMK A01 T00320024  RH  094%=      5-min Rain = 0
KCR2 081603Z 01006KT 03/02 A3033 RMK A01 T00320023  RH  094%=      5-min Rain = 0
KCR2 081604Z 02007KT 03/02 A3033 RMK A01 T00320023  RH  094%=      5-min Rain = 0
KCR2 081605Z 02007KT 03/02 A3033 RMK A01 T00320023  RH  093%=      5-min Rain = 0
KCR2 081606Z 02006KT 03/02 A3033 RMK A01 T00320023  RH  094%=      5-min Rain = 0
KCR2 081607Z 02006KT 03/02 A3033 RMK A01 T00330024  RH  094%=      5-min Rain = 0
KCR2 081608Z 03007KT 03/02 A3033 RMK A01 T00330023  RH  093%=      5-min Rain = 0
KCR2 081609Z 03006KT 03/02 A3033 RMK A01 T00330023  RH  093%=      5-min Rain = 0
KCR2 081610Z 03006KT 03/02 A3033 RMK A01 T00330022  RH  093%=      5-min Rain = 0
KCR2 081611Z 02006KT 03/02 A3033 RMK A01 T00320022  RH  093%=      5-min Rain = 0
KCR2 081612Z 02006KT 03/02 A3033 RMK A01 T00330022  RH  093%=      5-min Rain = 0
KCR2 081613Z 01006KT 03/02 A3033 RMK A01 T00330023  RH  093%=      5-min Rain = 0
KCR2 081614Z 02006KT 03/02 A3033 RMK A01 T00330023  RH  093%=      5-min Rain = 0
KCR2 081615Z 02006KT 03/02 A3033 RMK A01 T00330022  RH  092%=      5-min Rain = 0
KCR2 081616Z 02006KT 03/02 A3033 RMK A01 T00330020  RH  092%=      5-min Rain = 0
KCR2 081617Z 01006KT 03/02 A3033 RMK A01 T00330021  RH  092%=      5-min Rain = 0
KCR2 081618Z 01006KT 03/02 A3033 RMK A01 T00330022  RH  093%=      5-min Rain = 0
KCR2 081619Z 01006KT 03/02 A3033 RMK A01 T00330022  RH  093%=      5-min Rain = 0
KCR2 081620Z 01005KT 03/02 A3033 RMK A01 T00330022  RH  093%=      5-min Rain = 0
KCR2 081621Z 36005KT 03/02 A3033 RMK A01 T00330024  RH  093%=      5-min Rain = 0
KCR2 081622Z 36005KT 03/03 A3034 RMK A01 T00340026  RH  094%=      5-min Rain = 0
KCR2 081623Z 36006KT 04/03 A3034 RMK A01 T00350026  RH  094%=      5-min Rain = 0
KCR2 081624Z 35007KT 03/02 A3034 RMK A01 T00340024  RH  093%=      5-min Rain = 0
KCR2 081625Z 35006KT 03/02 A3034 RMK A01 T00340023  RH  093%=      5-min Rain = 0
KCR2 081626Z 35006KT 03/02 A3034 RMK A01 T00340022  RH  092%=      5-min Rain = 0
KCR2 081627Z 35004KT 03/02 A3034 RMK A01 T00340024  RH  093%=      5-min Rain = 0
KCR2 081628Z 36004KT 04/03 A3034 RMK A01 T00350026  RH  094%=      5-min Rain = 0
KCR2 081629Z 36007KT 04/03 A3034 RMK A01 T00360025  RH  093%=      5-min Rain = 0
KCR2 081630Z 36006KT 04/02 A3034 RMK A01 T00350022  RH  091%=      5-min Rain = 0
KCR2 081631Z 34006KT 04/02 A3034 RMK A01 T00350021  RH  091%=      5-min Rain = 0
KCR2 081632Z 35005KT 04/02 A3034 RMK A01 T00350021  RH  091%=      5-min Rain = 0
KCR2 081633Z 35007KT 04/02 A3034 RMK A01 T00350022  RH  091%=      5-min Rain = 0
KCR2 081634Z 35007KT 03/02 A3034 RMK A01 T00340022  RH  092%=      5-min Rain = 0
KCR2 081635Z 35007KT 03/02 A3034 RMK A01 T00340022  RH  092%=      5-min Rain = 0
KCR2 081636Z 36007KT 03/02 A3034 RMK A01 T00330021  RH  092%=      5-min Rain = 0
KCR2 081637Z 36006KT 03/02 A3034 RMK A01 T00330021  RH  092%=      5-min Rain = 0
KCR2 081638Z 35005KT 03/02 A3034 RMK A01 T00330022  RH  092%=      5-min Rain = 0
KCR2 081639Z 00006KT 03/02 A3034 RMK A01 T00330022  RH  093%=      5-min Rain = 0
KCR2 081640Z 00006KT 03/02 A3034 RMK A01 T00330022  RH  093%=      5-min Rain = 0
KCR2 081641Z 36005KT 03/02 A3034 RMK A01 T00330022  RH  092%=      5-min Rain = 0
KCR2 081642Z 01007KT 03/02 A3034 RMK A01 T00330022  RH  092%=      5-min Rain = 0
KCR2 081643Z 01006KT 03/02 A3034 RMK A01 T00330020  RH  091%=      5-min Rain = 0
KCR2 081644Z 01005KT 03/02 A3034 RMK A01 T00330020  RH  091%=      5-min Rain = 0
KCR2 081645Z 01005KT 03/02 A3034 RMK A01 T00340023  RH  092%=      5-min Rain = 0
KCR2 081646Z 00007KT 04/02 A3034 RMK A01 T00350024  RH  093%=      5-min Rain = 0
KCR2 081647Z 36007KT 04/02 A3034 RMK A01 T00350023  RH  092%=      5-min Rain = 0.01
KCR2 081648Z 35006KT 04/02 A3034 RMK A01 T00350022  RH  091%=      5-min Rain = 0
KCR2 081649Z 36006KT 04/02 A3034 RMK A01 T00350021  RH  091%=      5-min Rain = 0
KCR2 081650Z 00006KT 04/02 A3034 RMK A01 T00350023  RH  092%=      5-min Rain = 0
KCR2 081651Z 35005KT 04/03 A3034 RMK A01 T00360025  RH  093%=      5-min Rain = 0
KCR2 081652Z 36005KT 04/03 A3034 RMK A01 T00360025  RH  093%=      5-min Rain = 0
KCR2 081653Z 01005KT 04/03 A3034 RMK A01 T00360025  RH  092%=      5-min Rain = 0
KCR2 081654Z 00006KT 04/03 A3034 RMK A01 T00360025  RH  093%=      5-min Rain = 0
KCR2 081655Z 35006KT 04/03 A3034 RMK A01 T00370025  RH  092%=      5-min Rain = 0
KCR2 081656Z 01007KT 04/02 A3034 RMK A01 T00360022  RH  091%=      5-min Rain = 0
KCR2 081657Z 00006KT 04/02 A3034 RMK A01 T00350021  RH  091%=      5-min Rain = 0
KCR2 081658Z 01006KT 04/02 A3034 RMK A01 T00350020  RH  090%=      5-min Rain = 0
KCR2 081659Z 01007KT 04/02 A3033 RMK A01 T00350020  RH  090%=      5-min Rain = 0
KCR2 081700Z 01006KT 04/02 A3034 RMK A01 T00350020  RH  090%=      5-min Rain = 0
KCR2 081701Z 01006KT 04/02 A3034 RMK A01 T00350019  RH  090%=      5-min Rain = 0
KCR2 081702Z 36006KT 03/02 A3034 RMK A01 T00340020  RH  090%=      5-min Rain = 0
KCR2 081703Z 35006KT 04/02 A3034 RMK A01 T00350021  RH  091%=      5-min Rain = 0
KCR2 081704Z 35005KT 04/02 A3034 RMK A01 T00350019  RH  089%=      5-min Rain = 0
KCR2 081705Z 35004KT 04/02 A3034 RMK A01 T00350020  RH  090%=      5-min Rain = 0
KCR2 081706Z 00005KT 04/02 A3034 RMK A01 T00360023  RH  091%=      5-min Rain = 0
KCR2 081707Z 00006KT 04/02 A3034 RMK A01 T00370024  RH  091%=      5-min Rain = 0
KCR2 081708Z 00006KT 04/02 A3034 RMK A01 T00360022  RH  090%=      5-min Rain = 0
KCR2 081709Z 01006KT 04/02 A3034 RMK A01 T00360021  RH  090%=      5-min Rain = 0
KCR2 081710Z 36006KT 04/02 A3034 RMK A01 T00360021  RH  090%=      5-min Rain = 0
KCR2 081711Z 36005KT 04/02 A3034 RMK A01 T00350021  RH  090%=      5-min Rain = 0
KCR2 081712Z 01005KT 04/02 A3034 RMK A01 T00360024  RH  092%=      5-min Rain = 0
KCR2 081713Z 36005KT 04/03 A3034 RMK A01 T00370025  RH  092%=      5-min Rain = 0
KCR2 081714Z 35004KT 04/03 A3034 RMK A01 T00370026  RH  092%=      5-min Rain = 0
KCR2 081715Z 34006KT 04/03 A3034 RMK A01 T00380027  RH  093%=      5-min Rain = 0
KCR2 081716Z 34006KT 04/02 A3034 RMK A01 T00370021  RH  090%=      5-min Rain = 0
KCR2 081717Z 34006KT 04/02 A3034 RMK A01 T00360021  RH  090%=      5-min Rain = 0
KCR2 081718Z 34006KT 04/02 A3034 RMK A01 T00360021  RH  090%=      5-min Rain = 0
KCR2 081719Z 34006KT 04/02 A3034 RMK A01 T00360022  RH  091%=      5-min Rain = 0
KCR2 081720Z 34007KT 04/02 A3034 RMK A01 T00360024  RH  091%=      5-min Rain = 0
KCR2 081721Z 35006KT 04/02 A3034 RMK A01 T00370024  RH  092%=      5-min Rain = 0
KCR2 081722Z 35007KT 04/03 A3034 RMK A01 T00370025  RH  092%=      5-min Rain = 0
KCR2 081723Z 35008KT 04/03 A3034 RMK A01 T00370025  RH  092%=      5-min Rain = 0
KCR2 081724Z 34006KT 04/02 A3034 RMK A01 T00360023  RH  091%=      5-min Rain = 0
KCR2 081725Z 33007KT 04/02 A3034 RMK A01 T00350022  RH  091%=      5-min Rain = 0
KCR2 081726Z 34006KT 04/02 A3034 RMK A01 T00350023  RH  092%=      5-min Rain = 0
KCR2 081727Z 35007KT 04/02 A3034 RMK A01 T00350022  RH  092%=      5-min Rain = 0
KCR2 081728Z 35006KT 04/02 A3034 RMK A01 T00350021  RH  091%=      5-min Rain = 0
KCR2 081729Z 36006KT 03/02 A3034 RMK A01 T00340021  RH  091%=      5-min Rain = 0
KCR2 081730Z 35007KT 03/02 A3034 RMK A01 T00340022  RH  092%=      5-min Rain = 0
KCR2 081731Z 34007KT 03/02 A3034 RMK A01 T00340022  RH  092%=      5-min Rain = 0
KCR2 081732Z 34006KT 03/02 A3034 RMK A01 T00340022  RH  092%=      5-min Rain = 0
KCR2 081733Z 35006KT 03/02 A3034 RMK A01 T00330021  RH  091%=      5-min Rain = 0
KCR2 081734Z 35008KT 03/02 A3034 RMK A01 T00330022  RH  092%=      5-min Rain = 0
KCR2 081735Z 01006KT 03/02 A3034 RMK A01 T00330020  RH  091%=      5-min Rain = 0
KCR2 081736Z 35005KT 03/02 A3034 RMK A01 T00330021  RH  092%=      5-min Rain = 0
KCR2 081737Z 34006KT 03/02 A3034 RMK A01 T00340023  RH  093%=      5-min Rain = 0
KCR2 081738Z 35008KT 03/02 A3034 RMK A01 T00340023  RH  093%=      5-min Rain = 0
KCR2 081739Z 34009KT 03/02 A3034 RMK A01 T00320019  RH  091%=      5-min Rain = 0
KCR2 081740Z 34007KT 03/02 A3034 RMK A01 T00320018  RH  091%=      5-min Rain = 0
KCR2 081741Z 35007KT 03/02 A3034 RMK A01 T00320019  RH  092%=      5-min Rain = 0
KCR2 081742Z 35008KT 03/02 A3034 RMK A01 T00320020  RH  092%=      5-min Rain = 0
KCR2 081743Z 35008KT 03/02 A3034 RMK A01 T00320019  RH  092%=      5-min Rain = 0
KCR2 081744Z 34009KT 03/02 A3034 RMK A01 T00310020  RH  092%=      5-min Rain = 0
KCR2 081745Z 34008KT 03/02 A3034 RMK A01 T00320018  RH  091%=      5-min Rain = 0
KCR2 081746Z 35008KT 03/02 A3034 RMK A01 T00310018  RH  091%=      5-min Rain = 0
KCR2 081747Z 36008KT 03/02 A3034 RMK A01 T00320018  RH  091%=      5-min Rain = 0
KCR2 081748Z 36008KT 03/02 A3034 RMK A01 T00310017  RH  091%=      5-min Rain = 0
KCR2 081749Z 00007KT 03/02 A3034 RMK A01 T00310017  RH  091%=      5-min Rain = 0
KCR2 081750Z 00007KT 03/02 A3033 RMK A01 T00320019  RH  091%=      5-min Rain = 0
KCR2 081751Z 00008KT 03/02 A3033 RMK A01 T00320018  RH  091%=      5-min Rain = 0
KCR2 081752Z 00008KT 03/02 A3033 RMK A01 T00320018  RH  091%=      5-min Rain = 0
KCR2 081753Z 00007KT 03/02 A3033 RMK A01 T00330019  RH  091%=      5-min Rain = 0
KCR2 081754Z 35007KT 03/02 A3033 RMK A01 T00330021  RH  092%=      5-min Rain = 0
KCR2 081755Z 33007KT 03/02 A3033 RMK A01 T00330021  RH  092%=      5-min Rain = 0
KCR2 081756Z 35007KT 03/02 A3033 RMK A01 T00340022  RH  092%=      5-min Rain = 0
KCR2 081757Z 35007KT 03/02 A3033 RMK A01 T00340023  RH  092%=      5-min Rain = 0
KCR2 081758Z 34009KT 03/02 A3033 RMK A01 T00340022  RH  092%=      5-min Rain = 0
KCR2 081759Z 35006KT 03/02 A3033 RMK A01 T00340021  RH  092%=      5-min Rain = 0
KCR2 081800Z 35007KT 03/02 A3033 RMK A01 T00340023  RH  092%=      5-min Rain = 0
KCR2 081801Z 36006KT 03/02 A3033 RMK A01 T00340022  RH  092%=      5-min Rain = 0
KCR2 081802Z 35007KT 03/02 A3033 RMK A01 T00340021  RH  091%=      5-min Rain = 0
KCR2 081803Z 35008KT 03/02 A3033 RMK A01 T00340021  RH  091%=      5-min Rain = 0
KCR2 081804Z 35008KT 03/02 A3033 RMK A01 T00340022  RH  092%=      5-min Rain = 0
KCR2 081805Z 34008KT 03/02 A3033 RMK A01 T00340021  RH  091%=      5-min Rain = 0
KCR2 081806Z 35008KT 03/02 A3033 RMK A01 T00330019  RH  090%=      5-min Rain = 0
KCR2 081807Z 36009KT 03/02 A3033 RMK A01 T00330019  RH  091%=      5-min Rain = 0
KCR2 081808Z 36008KT 03/02 A3033 RMK A01 T00330019  RH  091%=      5-min Rain = 0
KCR2 081809Z 34007KT 03/02 A3033 RMK A01 T00330019  RH  091%=      5-min Rain = 0
KCR2 081810Z 35008KT 03/02 A3033 RMK A01 T00330020  RH  091%=      5-min Rain = 0
KCR2 081811Z 36008KT 03/02 A3033 RMK A01 T00330020  RH  091%=      5-min Rain = 0
KCR2 081812Z 36009KT 03/02 A3033 RMK A01 T00330018  RH  090%=      5-min Rain = 0
KCR2 081813Z 36009KT 03/02 A3033 RMK A01 T00330018  RH  090%=      5-min Rain = 0
KCR2 081814Z 00007KT 03/02 A3033 RMK A01 T00330019  RH  091%=      5-min Rain = 0
KCR2 081815Z 01008KT 03/02 A3033 RMK A01 T00330020  RH  091%=      5-min Rain = 0
KCR2 081816Z 00007KT 03/02 A3033 RMK A01 T00330019  RH  090%=      5-min Rain = 0
KCR2 081817Z 00008KT 03/02 A3033 RMK A01 T00330019  RH  090%=      5-min Rain = 0
KCR2 081818Z 35008KT 03/02 A3033 RMK A01 T00330018  RH  090%=      5-min Rain = 0
KCR2 081819Z 35008KT 03/02 A3033 RMK A01 T00330018  RH  090%=      5-min Rain = 0
KCR2 081820Z 35009KT 03/02 A3033 RMK A01 T00330019  RH  091%=      5-min Rain = 0
KCR2 081821Z 00008KT 03/02 A3032 RMK A01 T00330018  RH  090%=      5-min Rain = 0
KCR2 081822Z 00007KT 03/02 A3032 RMK A01 T00330017  RH  090%=      5-min Rain = 0
KCR2 081823Z 36006KT 03/02 A3032 RMK A01 T00330018  RH  090%=      5-min Rain = 0
KCR2 081824Z 00007KT 03/02 A3032 RMK A01 T00330016  RH  089%=      5-min Rain = 0
KCR2 081825Z 00008KT 03/02 A3032 RMK A01 T00320015  RH  089%=      5-min Rain = 0
KCR2 081826Z 00008KT 03/02 A3032 RMK A01 T00320016  RH  089%=      5-min Rain = 0
KCR2 081827Z 01006KT 03/02 A3032 RMK A01 T00330018  RH  090%=      5-min Rain = 0
KCR2 081828Z 00007KT 04/02 A3032 RMK A01 T00350021  RH  091%=      5-min Rain = 0
KCR2 081829Z 35008KT 04/02 A3032 RMK A01 T00350020  RH  090%=      5-min Rain = 0
KCR2 081830Z 34008KT 04/02 A3032 RMK A01 T00350019  RH  089%=      5-min Rain = 0
KCR2 081831Z 34007KT 03/02 A3032 RMK A01 T00340019  RH  089%=      5-min Rain = 0
KCR2 081832Z 35008KT 03/02 A3032 RMK A01 T00340018  RH  089%=      5-min Rain = 0
KCR2 081833Z 00007KT 03/02 A3032 RMK A01 T00340018  RH  089%=      5-min Rain = 0
KCR2 081834Z 01007KT 04/02 A3031 RMK A01 T00350018  RH  089%=      5-min Rain = 0
KCR2 081835Z 01007KT 03/02 A3031 RMK A01 T00340017  RH  088%=      5-min Rain = 0
KCR2 081836Z 36007KT 04/02 A3031 RMK A01 T00350019  RH  089%=      5-min Rain = 0
KCR2 081837Z 35006KT 04/02 A3031 RMK A01 T00350019  RH  089%=      5-min Rain = 0
KCR2 081838Z 35006KT 04/02 A3031 RMK A01 T00360022  RH  090%=      5-min Rain = 0
KCR2 081839Z 00007KT 04/02 A3031 RMK A01 T00370021  RH  090%=      5-min Rain = 0
KCR2 081840Z 00007KT 04/02 A3031 RMK A01 T00360017  RH  087%=      5-min Rain = 0
KCR2 081841Z 36006KT 04/01 A3031 RMK A01 T00350014  RH  086%=      5-min Rain = 0
KCR2 081842Z 01005KT 04/02 A3031 RMK A01 T00350016  RH  087%=      5-min Rain = 0
KCR2 081843Z 35006KT 04/02 A3031 RMK A01 T00370020  RH  089%=      5-min Rain = 0
KCR2 081844Z 34007KT 04/02 A3031 RMK A01 T00380020  RH  088%=      5-min Rain = 0
KCR2 081845Z 34006KT 04/02 A3031 RMK A01 T00380018  RH  087%=      5-min Rain = 0
KCR2 081846Z 35005KT 04/02 A3031 RMK A01 T00370019  RH  088%=      5-min Rain = 0
KCR2 081847Z 00007KT 04/02 A3031 RMK A01 T00370021  RH  089%=      5-min Rain = 0
KCR2 081848Z 00005KT 04/02 A3031 RMK A01 T00380019  RH  087%=      5-min Rain = 0
KCR2 081849Z 00005KT 04/02 A3031 RMK A01 T00380020  RH  088%=      5-min Rain = 0
KCR2 081850Z 36006KT 04/02 A3031 RMK A01 T00390022  RH  089%=      5-min Rain = 0
KCR2 081851Z 00007KT 04/02 A3031 RMK A01 T00390021  RH  088%=      5-min Rain = 0
KCR2 081852Z 01007KT 04/02 A3031 RMK A01 T00390018  RH  087%=      5-min Rain = 0
KCR2 081853Z 01007KT 04/01 A3031 RMK A01 T00380014  RH  085%=      5-min Rain = 0
KCR2 081854Z 35007KT 04/02 A3031 RMK A01 T00370015  RH  086%=      5-min Rain = 0
KCR2 081855Z 35006KT 04/02 A3031 RMK A01 T00360016  RH  087%=      5-min Rain = 0
KCR2 081856Z 35006KT 04/02 A3031 RMK A01 T00380020  RH  088%=      5-min Rain = 0
KCR2 081857Z 01006KT 04/02 A3031 RMK A01 T00380022  RH  089%=      5-min Rain = 0
KCR2 081858Z 00007KT 04/02 A3031 RMK A01 T00390020  RH  087%=      5-min Rain = 0
KCR2 081859Z 35006KT 04/02 A3031 RMK A01 T00390018  RH  086%=      5-min Rain = 0
KCR2 081900Z 35007KT 04/02 A3031 RMK A01 T00380018  RH  087%=      5-min Rain = 0
KCR2 081901Z 35007KT 04/02 A303 RMK A01 T00380017  RH  086%=      5-min Rain = 0
KCR2 081902Z 35005KT 04/02 A303 RMK A01 T00380017  RH  086%=      5-min Rain = 0
KCR2 081903Z 01005KT 04/02 A303 RMK A01 T00380019  RH  087%=      5-min Rain = 0
KCR2 081904Z 00006KT 04/02 A303 RMK A01 T00380018  RH  087%=      5-min Rain = 0
KCR2 081905Z 36006KT 04/02 A303 RMK A01 T00380016  RH  086%=      5-min Rain = 0
KCR2 081906Z 01005KT 04/02 A303 RMK A01 T00380017  RH  086%=      5-min Rain = 0
KCR2 081907Z 35005KT 04/02 A303 RMK A01 T00380019  RH  087%=      5-min Rain = 0
KCR2 081908Z 35005KT 04/02 A303 RMK A01 T00380020  RH  088%=      5-min Rain = 0
KCR2 081909Z 35006KT 04/02 A303 RMK A01 T00390020  RH  088%=      5-min Rain = 0
KCR2 081910Z 35006KT 04/02 A303 RMK A01 T00390017  RH  086%=      5-min Rain = 0
KCR2 081911Z 35006KT 04/02 A303 RMK A01 T00380018  RH  086%=      5-min Rain = 0
KCR2 081912Z 34008KT 04/02 A303 RMK A01 T00380018  RH  087%=      5-min Rain = 0
KCR2 081913Z 35007KT 04/02 A303 RMK A01 T00380016  RH  085%=      5-min Rain = 0
KCR2 081914Z 35007KT 04/02 A303 RMK A01 T00370015  RH  085%=      5-min Rain = 0
KCR2 081915Z 00007KT 04/02 A303 RMK A01 T00380016  RH  086%=      5-min Rain = 0
KCR2 081916Z 00005KT 04/02 A303 RMK A01 T00380016  RH  086%=      5-min Rain = 0
KCR2 081917Z 36005KT 04/02 A303 RMK A01 T00390019  RH  087%=      5-min Rain = 0
KCR2 081918Z 35004KT 04/02 A303 RMK A01 T00390018  RH  086%=      5-min Rain = 0
KCR2 081919Z 01004KT 04/02 A303 RMK A01 T00390019  RH  086%=      5-min Rain = 0
KCR2 081920Z 35005KT 04/02 A303 RMK A01 T00390018  RH  086%=      5-min Rain = 0
KCR2 081921Z 34006KT 04/02 A303 RMK A01 T00400018  RH  085%=      5-min Rain = 0
KCR2 081922Z 33006KT 04/02 A303 RMK A01 T00390016  RH  085%=      5-min Rain = 0
KCR2 081923Z 34007KT 04/02 A303 RMK A01 T00390018  RH  086%=      5-min Rain = 0
KCR2 081924Z 34006KT 04/02 A303 RMK A01 T00400019  RH  087%=      5-min Rain = 0
KCR2 081925Z 33006KT 04/02 A303 RMK A01 T00400019  RH  086%=      5-min Rain = 0
KCR2 081926Z 33006KT 04/02 A303 RMK A01 T00400017  RH  085%=      5-min Rain = 0
KCR2 081927Z 35007KT 04/02 A303 RMK A01 T00400018  RH  086%=      5-min Rain = 0
KCR2 081928Z 34005KT 04/02 A303 RMK A01 T00400017  RH  085%=      5-min Rain = 0
KCR2 081929Z 34006KT 04/02 A303 RMK A01 T00400017  RH  085%=      5-min Rain = 0
KCR2 081930Z 34006KT 04/02 A303 RMK A01 T00400016  RH  084%=      5-min Rain = 0
KCR2 081931Z 34005KT 04/02 A303 RMK A01 T00400016  RH  084%=      5-min Rain = 0
KCR2 081932Z 33004KT 04/02 A3029 RMK A01 T00400017  RH  085%=      5-min Rain = 0
KCR2 081933Z 32006KT 04/02 A3029 RMK A01 T00400017  RH  085%=      5-min Rain = 0
KCR2 081934Z 35004KT 04/02 A3029 RMK A01 T00410017  RH  085%=      5-min Rain = 0
KCR2 081935Z 32005KT 04/02 A3029 RMK A01 T00420020  RH  086%=      5-min Rain = 0
KCR2 081936Z 32006KT 04/02 A3029 RMK A01 T00420020  RH  085%=      5-min Rain = 0
KCR2 081937Z 34004KT 04/02 A3029 RMK A01 T00420018  RH  084%=      5-min Rain = 0
KCR2 081938Z 33004KT 04/02 A3029 RMK A01 T00420015  RH  082%=      5-min Rain = 0
KCR2 081939Z 32004KT 04/02 A3029 RMK A01 T00420016  RH  084%=      5-min Rain = 0
KCR2 081940Z 32005KT 04/02 A3029 RMK A01 T00420018  RH  084%=      5-min Rain = 0
KCR2 081941Z 32005KT 04/02 A3029 RMK A01 T00420017  RH  084%=      5-min Rain = 0
KCR2 081942Z 31004KT 04/02 A3029 RMK A01 T00420018  RH  084%=      5-min Rain = 0
KCR2 081943Z 31004KT 04/02 A3029 RMK A01 T00420017  RH  084%=      5-min Rain = 0
KCR2 081944Z 35004KT 04/02 A3029 RMK A01 T00420019  RH  085%=      5-min Rain = 0
KCR2 081945Z 35003KT 04/02 A3029 RMK A01 T00420020  RH  085%=      5-min Rain = 0
KCR2 081946Z 34005KT 04/02 A3029 RMK A01 T00430020  RH  085%=      5-min Rain = 0
KCR2 081947Z 34005KT 04/02 A3029 RMK A01 T00430018  RH  083%=      5-min Rain = 0
KCR2 081948Z 33004KT 04/02 A3029 RMK A01 T00430015  RH  082%=      5-min Rain = 0
KCR2 081949Z 35005KT 04/02 A3029 RMK A01 T00420018  RH  084%=      5-min Rain = 0
KCR2 081950Z 34005KT 04/02 A3029 RMK A01 T00420018  RH  084%=      5-min Rain = 0
KCR2 081951Z 33005KT 04/02 A3029 RMK A01 T00420019  RH  085%=      5-min Rain = 0
KCR2 081952Z 34006KT 04/02 A3028 RMK A01 T00430022  RH  086%=      5-min Rain = 0
KCR2 081953Z 34006KT 04/02 A3028 RMK A01 T00440019  RH  084%=      5-min Rain = 0
KCR2 081954Z 33006KT 04/02 A3028 RMK A01 T00430017  RH  083%=      5-min Rain = 0
KCR2 081955Z 34005KT 04/02 A3028 RMK A01 T00420016  RH  083%=      5-min Rain = 0
KCR2 081956Z 35004KT 04/02 A3028 RMK A01 T00420016  RH  083%=      5-min Rain = 0
KCR2 081957Z 35004KT 04/02 A3028 RMK A01 T00420019  RH  085%=      5-min Rain = 0
KCR2 081958Z 00006KT 04/02 A3028 RMK A01 T00440021  RH  085%=      5-min Rain = 0
KCR2 081959Z 00006KT 04/02 A3028 RMK A01 T00440019  RH  084%=      5-min Rain = 0
KCR2 082000Z 34005KT 04/02 A3028 RMK A01 T00440019  RH  084%=      5-min Rain = 0
KCR2 082001Z 33004KT 04/02 A3028 RMK A01 T00430018  RH  084%=      5-min Rain = 0
KCR2 082002Z 35004KT 04/02 A3028 RMK A01 T00430020  RH  085%=      5-min Rain = 0
KCR2 082003Z 35004KT 04/02 A3028 RMK A01 T00430021  RH  086%=      5-min Rain = 0
KCR2 082004Z 34005KT 04/02 A3028 RMK A01 T00430019  RH  084%=      5-min Rain = 0
KCR2 082005Z 35006KT 04/02 A3028 RMK A01 T00430019  RH  085%=      5-min Rain = 0
KCR2 082006Z 34007KT 04/02 A3028 RMK A01 T00430023  RH  087%=      5-min Rain = 0
KCR2 082007Z 33006KT 04/02 A3028 RMK A01 T00430021  RH  086%=      5-min Rain = 0
KCR2 082008Z 32006KT 04/02 A3028 RMK A01 T00420019  RH  085%=      5-min Rain = 0
KCR2 082009Z 33005KT 04/02 A3028 RMK A01 T00420020  RH  086%=      5-min Rain = 0
KCR2 082010Z 36005KT 04/03 A3028 RMK A01 T00420025  RH  088%=      5-min Rain = 0
KCR2 082011Z 35006KT 04/03 A3028 RMK A01 T00430025  RH  088%=      5-min Rain = 0
KCR2 082012Z 34006KT 04/02 A3028 RMK A01 T00430023  RH  087%=      5-min Rain = 0
KCR2 082013Z 35005KT 04/02 A3028 RMK A01 T00420021  RH  086%=      5-min Rain = 0
KCR2 082014Z 33006KT 04/02 A3028 RMK A01 T00410021  RH  087%=      5-min Rain = 0
KCR2 082015Z 34007KT 04/02 A3028 RMK A01 T00420021  RH  087%=      5-min Rain = 0
KCR2 082016Z 34005KT 04/02 A3028 RMK A01 T00410021  RH  086%=      5-min Rain = 0
KCR2 082017Z 34005KT 04/02 A3028 RMK A01 T00420021  RH  086%=      5-min Rain = 0
KCR2 082018Z 34005KT 04/02 A3028 RMK A01 T00420024  RH  088%=      5-min Rain = 0
KCR2 082019Z 34006KT 04/03 A3028 RMK A01 T00430025  RH  088%=      5-min Rain = 0
KCR2 082020Z 35007KT 04/02 A3028 RMK A01 T00430023  RH  087%=      5-min Rain = 0
KCR2 082021Z 34007KT 04/02 A3028 RMK A01 T00430020  RH  085%=      5-min Rain = 0
KCR2 082022Z 35005KT 04/02 A3028 RMK A01 T00420020  RH  085%=      5-min Rain = 0
KCR2 082023Z 36006KT 04/02 A3028 RMK A01 T00420020  RH  086%=      5-min Rain = 0
KCR2 082024Z 36006KT 04/02 A3028 RMK A01 T00420020  RH  086%=      5-min Rain = 0
KCR2 082025Z 35006KT 04/02 A3027 RMK A01 T00420019  RH  085%=      5-min Rain = 0
KCR2 082026Z 35005KT 04/02 A3027 RMK A01 T00420020  RH  086%=      5-min Rain = 0
KCR2 082027Z 35007KT 04/02 A3027 RMK A01 T00420021  RH  086%=      5-min Rain = 0
KCR2 082028Z 35006KT 04/02 A3027 RMK A01 T00430021  RH  086%=      5-min Rain = 0
KCR2 082029Z 34007KT 04/02 A3027 RMK A01 T00430021  RH  086%=      5-min Rain = 0
KCR2 082030Z 35005KT 04/02 A3027 RMK A01 T00430020  RH  085%=      5-min Rain = 0
KCR2 082031Z 35007KT 04/02 A3027 RMK A01 T00430022  RH  086%=      5-min Rain = 0
KCR2 082032Z 35006KT 04/02 A3027 RMK A01 T00430021  RH  086%=      5-min Rain = 0
KCR2 082033Z 35006KT 04/02 A3027 RMK A01 T00430023  RH  087%=      5-min Rain = 0
KCR2 082034Z 35005KT 04/02 A3027 RMK A01 T00430022  RH  086%=      5-min Rain = 0
KCR2 082035Z 35005KT 04/02 A3027 RMK A01 T00430022  RH  086%=      5-min Rain = 0
KCR2 082036Z 33006KT 04/02 A3027 RMK A01 T00440024  RH  087%=      5-min Rain = 0
KCR2 082037Z 33008KT 04/02 A3027 RMK A01 T00440023  RH  086%=      5-min Rain = 0
KCR2 082038Z 33007KT 04/02 A3027 RMK A01 T00440022  RH  086%=      5-min Rain = 0
KCR2 082039Z 34007KT 04/02 A3027 RMK A01 T00430020  RH  085%=      5-min Rain = 0
KCR2 082040Z 35005KT 04/02 A3027 RMK A01 T00430020  RH  085%=      5-min Rain = 0
KCR2 082041Z 35006KT 04/02 A3027 RMK A01 T00430022  RH  086%=      5-min Rain = 0
KCR2 082042Z 35006KT 04/02 A3027 RMK A01 T00430022  RH  086%=      5-min Rain = 0
KCR2 082043Z 35005KT 04/02 A3027 RMK A01 T00430022  RH  086%=      5-min Rain = 0
KCR2 082044Z 33005KT 04/02 A3027 RMK A01 T00430020  RH  085%=      5-min Rain = 0
KCR2 082045Z 33005KT 04/02 A3027 RMK A01 T00430022  RH  086%=      5-min Rain = 0
KCR2 082046Z 35006KT 04/02 A3027 RMK A01 T00430021  RH  086%=      5-min Rain = 0
KCR2 082047Z 34007KT 04/02 A3027 RMK A01 T00440022  RH  086%=      5-min Rain = 0
KCR2 082048Z 34007KT 04/02 A3027 RMK A01 T00440021  RH  085%=      5-min Rain = 0
KCR2 082049Z 34006KT 04/02 A3027 RMK A01 T00440022  RH  086%=      5-min Rain = 0
KCR2 082050Z 34006KT 05/02 A3027 RMK A01 T00450024  RH  086%=      5-min Rain = 0
KCR2 082051Z 34007KT 04/02 A3028 RMK A01 T00440022  RH  086%=      5-min Rain = 0
KCR2 082052Z 34007KT 04/02 A3028 RMK A01 T00440021  RH  085%=      5-min Rain = 0
KCR2 082053Z 33006KT 04/02 A3028 RMK A01 T00440023  RH  086%=      5-min Rain = 0
KCR2 082054Z 32008KT 04/02 A3028 RMK A01 T00440022  RH  086%=      5-min Rain = 0
KCR2 082055Z 33006KT 04/02 A3028 RMK A01 T00440022  RH  086%=      5-min Rain = 0
KCR2 082056Z 33007KT 04/02 A3028 RMK A01 T00440022  RH  086%=      5-min Rain = 0
KCR2 082057Z 34006KT 04/02 A3027 RMK A01 T00440023  RH  086%=      5-min Rain = 0
KCR2 082058Z 34007KT 04/02 A3027 RMK A01 T00440023  RH  086%=      5-min Rain = 0
KCR2 082059Z 34006KT 04/02 A3027 RMK A01 T00440021  RH  085%=      5-min Rain = 0
KCR2 082100Z 34006KT 04/02 A3027 RMK A01 T00440022  RH  086%=      5-min Rain = 0
KCR2 082101Z 33006KT 04/02 A3027 RMK A01 T00440024  RH  087%=      5-min Rain = 0
KCR2 082102Z 32007KT 04/03 A3027 RMK A01 T00440025  RH  087%=      5-min Rain = 0
KCR2 082103Z 32006KT 04/02 A3027 RMK A01 T00440024  RH  087%=      5-min Rain = 0
KCR2 082104Z 32007KT 05/03 A3027 RMK A01 T00450025  RH  087%=      5-min Rain = 0
KCR2 082105Z 32007KT 05/02 A3027 RMK A01 T00450024  RH  086%=      5-min Rain = 0
KCR2 082106Z 33005KT 05/02 A3027 RMK A01 T00450023  RH  086%=      5-min Rain = 0
KCR2 082107Z 33005KT 05/03 A3027 RMK A01 T00450026  RH  088%=      5-min Rain = 0
KCR2 082108Z 33007KT 05/03 A3027 RMK A01 T00450025  RH  086%=      5-min Rain = 0
KCR2 082109Z 31007KT 05/02 A3027 RMK A01 T00450024  RH  086%=      5-min Rain = 0
KCR2 082110Z 33007KT 05/02 A3027 RMK A01 T00450023  RH  086%=      5-min Rain = 0
KCR2 082111Z 32007KT 05/02 A3027 RMK A01 T00450023  RH  085%=      5-min Rain = 0
KCR2 082112Z 33008KT 05/02 A3027 RMK A01 T00450022  RH  085%=      5-min Rain = 0
KCR2 082113Z 33006KT 05/02 A3027 RMK A01 T00450022  RH  085%=      5-min Rain = 0
KCR2 082114Z 32007KT 05/02 A3027 RMK A01 T00450022  RH  085%=      5-min Rain = 0
KCR2 082115Z 32007KT 05/02 A3027 RMK A01 T00450023  RH  086%=      5-min Rain = 0
KCR2 082116Z 32006KT 05/02 A3027 RMK A01 T00450024  RH  086%=      5-min Rain = 0
KCR2 082117Z 33006KT 05/02 A3027 RMK A01 T00450024  RH  086%=      5-min Rain = 0
KCR2 082118Z 33006KT 05/02 A3027 RMK A01 T00450023  RH  086%=      5-min Rain = 0
KCR2 082119Z 33005KT 05/02 A3027 RMK A01 T00450023  RH  086%=      5-min Rain = 0
KCR2 082120Z 33006KT 05/02 A3027 RMK A01 T00450024  RH  086%=      5-min Rain = 0
KCR2 082121Z 33005KT 05/02 A3027 RMK A01 T00450024  RH  086%=      5-min Rain = 0
KCR2 082122Z 00005KT 05/02 A3027 RMK A01 T00450024  RH  086%=      5-min Rain = 0
KCR2 082123Z 35004KT 05/02 A3027 RMK A01 T00450023  RH  086%=      5-min Rain = 0
KCR2 082124Z 34004KT 05/02 A3027 RMK A01 T00450023  RH  086%=      5-min Rain = 0
KCR2 082125Z 35005KT 05/02 A3027 RMK A01 T00460024  RH  086%=      5-min Rain = 0
KCR2 082126Z 34004KT 05/03 A3027 RMK A01 T00460025  RH  086%=      5-min Rain = 0
KCR2 082127Z 34003KT 05/03 A3027 RMK A01 T00470027  RH  087%=      5-min Rain = 0
KCR2 082128Z 32003KT 05/03 A3027 RMK A01 T00480027  RH  086%=      5-min Rain = 0
KCR2 082129Z 36003KT 05/03 A3027 RMK A01 T00480026  RH  086%=      5-min Rain = 0
KCR2 082130Z 00003KT 05/02 A3027 RMK A01 T00480024  RH  085%=      5-min Rain = 0
KCR2 082131Z 35001KT 05/02 A3027 RMK A01 T00480024  RH  085%=      5-min Rain = 0
KCR2 082132Z 30002KT 05/02 A3027 RMK A01 T00480024  RH  085%=      5-min Rain = 0
KCR2 082133Z 30001KT 05/03 A3027 RMK A01 T00480026  RH  086%=      5-min Rain = 0
KCR2 082134Z 32003KT 05/03 A3027 RMK A01 T00490026  RH  085%=      5-min Rain = 0
KCR2 082135Z 31003KT 05/02 A3027 RMK A01 T00490024  RH  084%=      5-min Rain = 0
KCR2 082136Z 31003KT 05/02 A3027 RMK A01 T00480023  RH  084%=      5-min Rain = 0
KCR2 082137Z 31004KT 05/03 A3027 RMK A01 T00480025  RH  085%=      5-min Rain = 0
KCR2 082138Z 32005KT 05/03 A3027 RMK A01 T00480026  RH  085%=      5-min Rain = 0
KCR2 082139Z 32005KT 05/02 A3027 RMK A01 T00480024  RH  084%=      5-min Rain = 0
KCR2 082140Z 30006KT 05/02 A3027 RMK A01 T00480023  RH  084%=      5-min Rain = 0
KCR2 082141Z 31006KT 05/02 A3027 RMK A01 T00490023  RH  083%=      5-min Rain = 0
KCR2 082142Z 32004KT 05/02 A3027 RMK A01 T00490022  RH  083%=      5-min Rain = 0
KCR2 082143Z 32006KT 05/02 A3027 RMK A01 T00490023  RH  083%=      5-min Rain = 0
KCR2 082144Z 32006KT 05/02 A3027 RMK A01 T00500024  RH  084%=      5-min Rain = 0
KCR2 082145Z 32005KT 05/03 A3027 RMK A01 T00500026  RH  084%=      5-min Rain = 0
KCR2 082146Z 31006KT 05/03 A3027 RMK A01 T00500025  RH  084%=      5-min Rain = 0
KCR2 082147Z 31005KT 05/03 A3027 RMK A01 T00510026  RH  084%=      5-min Rain = 0
KCR2 082148Z 31004KT 05/03 A3027 RMK A01 T00510026  RH  084%=      5-min Rain = 0
KCR2 082149Z 30006KT 05/03 A3027 RMK A01 T00510026  RH  084%=      5-min Rain = 0
KCR2 082150Z 30006KT 05/03 A3027 RMK A01 T00510025  RH  084%=      5-min Rain = 0
KCR2 082151Z 31006KT 05/03 A3027 RMK A01 T00500026  RH  084%=      5-min Rain = 0
KCR2 082152Z 30005KT 05/03 A3027 RMK A01 T00500025  RH  084%=      5-min Rain = 0
KCR2 082153Z 31005KT 05/02 A3027 RMK A01 T00500023  RH  083%=      5-min Rain = 0
KCR2 082154Z 30005KT 05/02 A3027 RMK A01 T00490023  RH  083%=      5-min Rain = 0
KCR2 082155Z 29005KT 05/02 A3027 RMK A01 T00490024  RH  084%=      5-min Rain = 0
KCR2 082156Z 30006KT 05/03 A3027 RMK A01 T00500026  RH  085%=      5-min Rain = 0
KCR2 082157Z 31006KT 05/03 A3027 RMK A01 T00500026  RH  084%=      5-min Rain = 0
KCR2 082158Z 31007KT 05/03 A3027 RMK A01 T00500025  RH  084%=      5-min Rain = 0
KCR2 082159Z 30007KT 05/02 A3027 RMK A01 T00500023  RH  082%=      5-min Rain = 0
KCR2 082200Z 30006KT 05/02 A3027 RMK A01 T00500021  RH  082%=      5-min Rain = 0
KCR2 082201Z 31005KT 05/02 A3027 RMK A01 T00500023  RH  083%=      5-min Rain = 0
KCR2 082202Z 32006KT 05/02 A3027 RMK A01 T00500023  RH  083%=      5-min Rain = 0
KCR2 082203Z 32007KT 05/02 A3027 RMK A01 T00500024  RH  084%=      5-min Rain = 0
KCR2 082204Z 32008KT 05/02 A3027 RMK A01 T00500023  RH  083%=      5-min Rain = 0
KCR2 082205Z 30006KT 05/03 A3027 RMK A01 T00500025  RH  084%=      5-min Rain = 0
KCR2 082206Z 31005KT 05/02 A3027 RMK A01 T00500024  RH  083%=      5-min Rain = 0
KCR2 082207Z 32005KT 05/02 A3027 RMK A01 T00500024  RH  083%=      5-min Rain = 0
KCR2 082208Z 32006KT 05/03 A3027 RMK A01 T00510025  RH  083%=      5-min Rain = 0
KCR2 082209Z 31006KT 05/03 A3027 RMK A01 T00510025  RH  084%=      5-min Rain = 0
KCR2 082210Z 31005KT 05/03 A3027 RMK A01 T00510025  RH  084%=      5-min Rain = 0
KCR2 082211Z 30006KT 05/03 A3027 RMK A01 T00510027  RH  085%=      5-min Rain = 0
KCR2 082212Z 30007KT 05/03 A3027 RMK A01 T00510025  RH  083%=      5-min Rain = 0
KCR2 082213Z 31007KT 05/02 A3027 RMK A01 T00510024  RH  083%=      5-min Rain = 0
KCR2 082214Z 32007KT 05/02 A3027 RMK A01 T00510023  RH  082%=      5-min Rain = 0
KCR2 082215Z 32006KT 05/02 A3027 RMK A01 T00510024  RH  083%=      5-min Rain = 0
KCR2 082216Z 32005KT 05/02 A3027 RMK A01 T00510023  RH  083%=      5-min Rain = 0
KCR2 082217Z 32006KT 05/02 A3027 RMK A01 T00500023  RH  083%=      5-min Rain = 0
KCR2 082218Z 33006KT 05/02 A3027 RMK A01 T00500023  RH  083%=      5-min Rain = 0
KCR2 082219Z 33006KT 05/02 A3027 RMK A01 T00500024  RH  083%=      5-min Rain = 0
KCR2 082220Z 34005KT 05/02 A3027 RMK A01 T00500024  RH  083%=      5-min Rain = 0
KCR2 082221Z 32004KT 05/03 A3027 RMK A01 T00500026  RH  084%=      5-min Rain = 0
KCR2 082222Z 33006KT 05/03 A3027 RMK A01 T00510026  RH  084%=      5-min Rain = 0
KCR2 082223Z 32006KT 05/03 A3027 RMK A01 T00510025  RH  083%=      5-min Rain = 0
KCR2 082224Z 32007KT 05/02 A3027 RMK A01 T00510023  RH  082%=      5-min Rain = 0
KCR2 082225Z 32007KT 05/02 A3027 RMK A01 T00510023  RH  082%=      5-min Rain = 0
KCR2 082226Z 31006KT 05/02 A3027 RMK A01 T00510023  RH  082%=      5-min Rain = 0
KCR2 082227Z 32006KT 05/02 A3027 RMK A01 T00500023  RH  083%=      5-min Rain = 0
KCR2 082228Z 32006KT 05/03 A3027 RMK A01 T00500025  RH  084%=      5-min Rain = 0
KCR2 082229Z 32005KT 05/03 A3027 RMK A01 T00510025  RH  083%=      5-min Rain = 0
KCR2 082230Z 32006KT 05/02 A3027 RMK A01 T00510024  RH  083%=      5-min Rain = 0
KCR2 082231Z 32006KT 05/02 A3027 RMK A01 T00510024  RH  083%=      5-min Rain = 0
KCR2 082232Z 31006KT 05/02 A3027 RMK A01 T00510024  RH  083%=      5-min Rain = 0
KCR2 082233Z 32006KT 05/03 A3027 RMK A01 T00510025  RH  083%=      5-min Rain = 0
KCR2 082234Z 32007KT 05/03 A3027 RMK A01 T00510025  RH  083%=      5-min Rain = 0
KCR2 082235Z 31007KT 05/02 A3027 RMK A01 T00510024  RH  082%=      5-min Rain = 0
KCR2 082236Z 31007KT 05/03 A3027 RMK A01 T00510025  RH  083%=      5-min Rain = 0
KCR2 082237Z 32006KT 05/03 A3027 RMK A01 T00510025  RH  083%=      5-min Rain = 0
KCR2 082238Z 31007KT 05/03 A3028 RMK A01 T00510025  RH  083%=      5-min Rain = 0
KCR2 082239Z 32006KT 05/02 A3028 RMK A01 T00510024  RH  083%=      5-min Rain = 0
KCR2 082240Z 31006KT 05/02 A3027 RMK A01 T00510024  RH  083%=      5-min Rain = 0
KCR2 082241Z 32006KT 05/03 A3027 RMK A01 T00510025  RH  083%=      5-min Rain = 0
KCR2 082242Z 33006KT 05/02 A3027 RMK A01 T00510024  RH  083%=      5-min Rain = 0
KCR2 082243Z 31005KT 05/02 A3027 RMK A01 T00510023  RH  083%=      5-min Rain = 0
KCR2 082244Z 31005KT 05/03 A3027 RMK A01 T00510026  RH  084%=      5-min Rain = 0
KCR2 082245Z 32006KT 05/03 A3027 RMK A01 T00510025  RH  083%=      5-min Rain = 0
KCR2 082246Z 31006KT 05/03 A3027 RMK A01 T00510025  RH  083%=      5-min Rain = 0
KCR2 082247Z 31007KT 05/03 A3027 RMK A01 T00510025  RH  083%=      5-min Rain = 0
KCR2 082248Z 31006KT 05/02 A3027 RMK A01 T00510024  RH  083%=      5-min Rain = 0
KCR2 082249Z 31005KT 05/02 A3027 RMK A01 T00510024  RH  082%=      5-min Rain = 0
KCR2 082250Z 31005KT 05/02 A3027 RMK A01 T00510024  RH  083%=      5-min Rain = 0
KCR2 082251Z 31007KT 05/02 A3027 RMK A01 T00510024  RH  083%=      5-min Rain = 0
KCR2 082252Z 31005KT 05/02 A3027 RMK A01 T00520024  RH  082%=      5-min Rain = 0
KCR2 082253Z 32007KT 05/02 A3027 RMK A01 T00520024  RH  083%=      5-min Rain = 0
KCR2 082254Z 32006KT 05/03 A3027 RMK A01 T00520025  RH  083%=      5-min Rain = 0
KCR2 082255Z 31007KT 05/03 A3027 RMK A01 T00520025  RH  083%=      5-min Rain = 0
KCR2 082256Z 32006KT 05/02 A3027 RMK A01 T00520024  RH  082%=      5-min Rain = 0
KCR2 082257Z 32007KT 05/02 A3027 RMK A01 T00510023  RH  082%=      5-min Rain = 0
KCR2 082258Z 32007KT 05/02 A3027 RMK A01 T00520023  RH  081%=      5-min Rain = 0
KCR2 082259Z 31005KT 05/02 A3027 RMK A01 T00520024  RH  082%=      5-min Rain = 0
KCR2 082300Z 31005KT 05/03 A3027 RMK A01 T00520025  RH  083%=      5-min Rain = 0
KCR2 082301Z 31005KT 05/02 A3027 RMK A01 T00510024  RH  082%=      5-min Rain = 0
KCR2 082302Z 32006KT 05/02 A3027 RMK A01 T00520023  RH  082%=      5-min Rain = 0
KCR2 082303Z 32006KT 05/02 A3028 RMK A01 T00520023  RH  082%=      5-min Rain = 0
KCR2 082304Z 33006KT 05/02 A3028 RMK A01 T00520022  RH  081%=      5-min Rain = 0
KCR2 082305Z 32006KT 05/02 A3028 RMK A01 T00520023  RH  082%=      5-min Rain = 0
KCR2 082306Z 32006KT 05/02 A3028 RMK A01 T00510024  RH  082%=      5-min Rain = 0
KCR2 082307Z 31005KT 05/02 A3028 RMK A01 T00510024  RH  083%=      5-min Rain = 0
KCR2 082308Z 30004KT 05/03 A3028 RMK A01 T00520025  RH  083%=      5-min Rain = 0
KCR2 082309Z 30005KT 05/03 A3028 RMK A01 T00520026  RH  084%=      5-min Rain = 0
KCR2 082310Z 31004KT 05/03 A3028 RMK A01 T00520027  RH  084%=      5-min Rain = 0
KCR2 082311Z 31005KT 05/03 A3028 RMK A01 T00520028  RH  085%=      5-min Rain = 0
KCR2 082312Z 31006KT 05/03 A3028 RMK A01 T00520025  RH  083%=      5-min Rain = 0
KCR2 082313Z 30006KT 05/03 A3028 RMK A01 T00520025  RH  083%=      5-min Rain = 0
KCR2 082314Z 30006KT 05/03 A3028 RMK A01 T00520025  RH  083%=      5-min Rain = 0
KCR2 082315Z 31005KT 05/03 A3028 RMK A01 T00510026  RH  083%=      5-min Rain = 0
KCR2 082316Z 30006KT 05/03 A3028 RMK A01 T00520026  RH  084%=      5-min Rain = 0
KCR2 082317Z 29006KT 05/03 A3028 RMK A01 T00520025  RH  083%=      5-min Rain = 0
KCR2 082318Z 29005KT 05/02 A3028 RMK A01 T00520024  RH  082%=      5-min Rain = 0
KCR2 082319Z 29006KT 05/03 A3028 RMK A01 T00520026  RH  083%=      5-min Rain = 0
KCR2 082320Z 29006KT 05/03 A3028 RMK A01 T00520025  RH  083%=      5-min Rain = 0
KCR2 082321Z 30005KT 05/03 A3028 RMK A01 T00520025  RH  083%=      5-min Rain = 0
KCR2 082322Z 30005KT 05/03 A3028 RMK A01 T00510025  RH  083%=      5-min Rain = 0
KCR2 082323Z 30005KT 05/03 A3028 RMK A01 T00520026  RH  083%=      5-min Rain = 0
KCR2 082324Z 30005KT 05/03 A3028 RMK A01 T00520026  RH  084%=      5-min Rain = 0
KCR2 082325Z 30005KT 05/03 A3028 RMK A01 T00520027  RH  084%=      5-min Rain = 0
KCR2 082326Z 30004KT 05/03 A3028 RMK A01 T00520027  RH  084%=      5-min Rain = 0
KCR2 082327Z 31005KT 05/03 A3028 RMK A01 T00520028  RH  085%=      5-min Rain = 0
KCR2 082328Z 31005KT 05/03 A3028 RMK A01 T00520026  RH  084%=      5-min Rain = 0
KCR2 082329Z 31005KT 05/03 A3028 RMK A01 T00520025  RH  083%=      5-min Rain = 0
KCR2 082330Z 31004KT 05/03 A3028 RMK A01 T00520026  RH  084%=      5-min Rain = 0
KCR2 082331Z 30006KT 05/03 A3028 RMK A01 T00520026  RH  084%=      5-min Rain = 0
KCR2 082332Z 30005KT 05/03 A3028 RMK A01 T00520025  RH  083%=      5-min Rain = 0
KCR2 082333Z 30005KT 05/03 A3028 RMK A01 T00520025  RH  083%=      5-min Rain = 0
KCR2 082334Z 30004KT 05/02 A3028 RMK A01 T00510024  RH  083%=      5-min Rain = 0
KCR2 082335Z 29007KT 05/03 A3028 RMK A01 T00510025  RH  083%=      5-min Rain = 0
KCR2 082336Z 29006KT 05/02 A3028 RMK A01 T00510024  RH  083%=      5-min Rain = 0
KCR2 082337Z 29006KT 05/02 A3028 RMK A01 T00510024  RH  083%=      5-min Rain = 0
KCR2 082338Z 29005KT 05/02 A3028 RMK A01 T00510024  RH  083%=      5-min Rain = 0
KCR2 082339Z 30005KT 05/03 A3028 RMK A01 T00510025  RH  083%=      5-min Rain = 0
KCR2 082340Z 30006KT 05/02 A3028 RMK A01 T00510024  RH  083%=      5-min Rain = 0
KCR2 082341Z 30006KT 05/02 A3028 RMK A01 T00510024  RH  083%=      5-min Rain = 0
KCR2 082342Z 30006KT 05/02 A3028 RMK A01 T00510024  RH  083%=      5-min Rain = 0
KCR2 082343Z 30005KT 05/02 A3028 RMK A01 T00510024  RH  083%=      5-min Rain = 0
KCR2 082344Z 31004KT 05/03 A3028 RMK A01 T00510026  RH  084%=      5-min Rain = 0
KCR2 082345Z 31004KT 05/03 A3028 RMK A01 T00510025  RH  084%=      5-min Rain = 0
KCR2 082346Z 31004KT 05/03 A3028 RMK A01 T00510026  RH  084%=      5-min Rain = 0
KCR2 082347Z 31004KT 05/03 A3028 RMK A01 T00510026  RH  084%=      5-min Rain = 0
KCR2 082348Z 30006KT 05/03 A3028 RMK A01 T00510025  RH  084%=      5-min Rain = 0
KCR2 082349Z 30005KT 05/02 A3028 RMK A01 T00510023  RH  083%=      5-min Rain = 0
KCR2 082350Z 30005KT 05/02 A3028 RMK A01 T00510024  RH  083%=      5-min Rain = 0
KCR2 082351Z 30004KT 05/03 A3028 RMK A01 T00510025  RH  083%=      5-min Rain = 0
KCR2 082352Z 30005KT 05/02 A3028 RMK A01 T00510024  RH  083%=      5-min Rain = 0
KCR2 082353Z 30004KT 05/02 A3028 RMK A01 T00510023  RH  082%=      5-min Rain = 0
KCR2 082354Z 30003KT 05/02 A3028 RMK A01 T00510024  RH  083%=      5-min Rain = 0
KCR2 082355Z 29004KT 05/03 A3028 RMK A01 T00510025  RH  083%=      5-min Rain = 0
KCR2 082356Z 29004KT 05/03 A3028 RMK A01 T00510025  RH  084%=      5-min Rain = 0
KCR2 082357Z 29004KT 05/03 A3028 RMK A01 T00510025  RH  084%=      5-min Rain = 0
KCR2 082358Z 30004KT 05/03 A3028 RMK A01 T00510026  RH  084%=      5-min Rain = 0
KCR2 082359Z 30004KT 05/03 A3028 RMK A01 T00510027  RH  085%=      5-min Rain = 0
KCR2 090000Z 30003KT 05/03 A3028 RMK A01 T00510027  RH  084%=      5-min Rain = 0
KCR2 090001Z 30004KT 05/03 A3028 RMK A01 T00510027  RH  084%=      5-min Rain = 0
KCR2 090002Z 30003KT 05/03 A3028 RMK A01 T00510026  RH  084%=      5-min Rain = 0
KCR2 090003Z 30003KT 05/03 A3028 RMK A01 T00510026  RH  084%=      5-min Rain = 0
KCR2 090004Z 30003KT 05/03 A3028 RMK A01 T00510026  RH  084%=      5-min Rain = 0
KCR2 090005Z 31003KT 05/03 A3028 RMK A01 T00510025  RH  084%=      5-min Rain = 0
KCR2 090006Z 32003KT 05/03 A3028 RMK A01 T00510025  RH  084%=      5-min Rain = 0
KCR2 090007Z 32002KT 05/03 A3028 RMK A01 T00510025  RH  084%=      5-min Rain = 0
KCR2 090008Z 32002KT 05/03 A3027 RMK A01 T00500025  RH  084%=      5-min Rain = 0
KCR2 090009Z 32003KT 05/03 A3027 RMK A01 T00500026  RH  084%=      5-min Rain = 0
KCR2 090010Z 32003KT 05/03 A3027 RMK A01 T00500025  RH  084%=      5-min Rain = 0
KCR2 090011Z 32002KT 05/02 A3027 RMK A01 T00500024  RH  083%=      5-min Rain = 0
KCR2 090012Z 31002KT 05/03 A3027 RMK A01 T00500026  RH  084%=      5-min Rain = 0
KCR2 090013Z 32002KT 05/03 A3027 RMK A01 T00500026  RH  084%=      5-min Rain = 0
KCR2 090014Z 32002KT 05/03 A3027 RMK A01 T00500026  RH  084%=      5-min Rain = 0
KCR2 090015Z 32002KT 05/03 A3027 RMK A01 T00500026  RH  084%=      5-min Rain = 0
KCR2 090016Z 31002KT 05/03 A3027 RMK A01 T00500026  RH  085%=      5-min Rain = 0
KCR2 090017Z 31003KT 05/03 A3027 RMK A01 T00500027  RH  085%=      5-min Rain = 0
KCR2 090018Z 31002KT 05/03 A3028 RMK A01 T00500027  RH  085%=      5-min Rain = 0
KCR2 090019Z 30003KT 05/03 A3028 RMK A01 T00500027  RH  085%=      5-min Rain = 0
KCR2 090020Z 29003KT 05/03 A3028 RMK A01 T00500026  RH  084%=      5-min Rain = 0
KCR2 090021Z 29003KT 05/03 A3028 RMK A01 T00500027  RH  085%=      5-min Rain = 0
KCR2 090022Z 29004KT 05/03 A3028 RMK A01 T00500027  RH  085%=      5-min Rain = 0
KCR2 090023Z 29004KT 05/03 A3029 RMK A01 T00510028  RH  085%=      5-min Rain = 0
KCR2 090024Z 28003KT 05/03 A3029 RMK A01 T00510027  RH  084%=      5-min Rain = 0
KCR2 090025Z 27004KT 05/03 A3029 RMK A01 T00510028  RH  085%=      5-min Rain = 0
KCR2 090026Z 27004KT 05/03 A3029 RMK A01 T00510028  RH  085%=      5-min Rain = 0
KCR2 090027Z 27004KT 05/03 A3029 RMK A01 T00510027  RH  085%=      5-min Rain = 0
KCR2 090028Z 28004KT 05/03 A3029 RMK A01 T00510027  RH  085%=      5-min Rain = 0
KCR2 090029Z 27003KT 05/03 A3029 RMK A01 T00510027  RH  085%=      5-min Rain = 0
KCR2 090030Z 27003KT 05/03 A3029 RMK A01 T00510029  RH  085%=      5-min Rain = 0
KCR2 090031Z 27004KT 05/03 A3029 RMK A01 T00510028  RH  085%=      5-min Rain = 0
KCR2 090032Z 27004KT 05/03 A3029 RMK A01 T00510027  RH  085%=      5-min Rain = 0
KCR2 090033Z 27003KT 05/03 A3029 RMK A01 T00510027  RH  085%=      5-min Rain = 0
KCR2 090034Z 27003KT 05/03 A3029 RMK A01 T00510028  RH  085%=      5-min Rain = 0
KCR2 090035Z 27003KT 05/03 A3029 RMK A01 T00510026  RH  084%=      5-min Rain = 0
KCR2 090036Z 27003KT 05/03 A3029 RMK A01 T00510026  RH  084%=      5-min Rain = 0
KCR2 090037Z 27003KT 05/03 A3029 RMK A01 T00510025  RH  084%=      5-min Rain = 0
KCR2 090038Z 27002KT 05/03 A3028 RMK A01 T00510026  RH  084%=      5-min Rain = 0
KCR2 090039Z 28002KT 05/03 A3028 RMK A01 T00510027  RH  084%=      5-min Rain = 0
KCR2 090040Z 27002KT 05/03 A3028 RMK A01 T00510027  RH  085%=      5-min Rain = 0
KCR2 090041Z 27002KT 05/03 A3028 RMK A01 T00510026  RH  084%=      5-min Rain = 0
KCR2 090042Z 27002KT 05/03 A3028 RMK A01 T00510026  RH  084%=      5-min Rain = 0
KCR2 090043Z 28002KT 05/03 A3028 RMK A01 T00510025  RH  084%=      5-min Rain = 0
KCR2 090044Z 29002KT 05/03 A3028 RMK A01 T00510025  RH  084%=      5-min Rain = 0
KCR2 090045Z 28003KT 05/03 A3028 RMK A01 T00510026  RH  084%=      5-min Rain = 0
KCR2 090046Z 28003KT 05/03 A3029 RMK A01 T00510025  RH  083%=      5-min Rain = 0
KCR2 090047Z 27003KT 05/03 A3029 RMK A01 T00510025  RH  083%=      5-min Rain = 0
KCR2 090048Z 27003KT 05/03 A3029 RMK A01 T00510025  RH  083%=      5-min Rain = 0
KCR2 090049Z 26003KT 05/03 A3029 RMK A01 T00510025  RH  083%=      5-min Rain = 0
KCR2 090050Z 27003KT 05/03 A3029 RMK A01 T00510026  RH  084%=      5-min Rain = 0
KCR2 090051Z 28003KT 05/03 A3029 RMK A01 T00510026  RH  084%=      5-min Rain = 0
KCR2 090052Z 27003KT 05/03 A3029 RMK A01 T00520028  RH  085%=      5-min Rain = 0
KCR2 090053Z 28002KT 05/03 A3029 RMK A01 T00520028  RH  085%=      5-min Rain = 0
KCR2 090054Z 28003KT 05/03 A3029 RMK A01 T00520028  RH  085%=      5-min Rain = 0
KCR2 090055Z 28003KT 05/03 A3029 RMK A01 T00520027  RH  084%=      5-min Rain = 0
KCR2 090056Z 29003KT 05/03 A3029 RMK A01 T00520028  RH  085%=      5-min Rain = 0
KCR2 090057Z 30003KT 05/03 A3029 RMK A01 T00520028  RH  085%=      5-min Rain = 0
KCR2 090058Z 33004KT 05/03 A3029 RMK A01 T00520026  RH  083%=      5-min Rain = 0
KCR2 090059Z 33005KT 05/02 A3029 RMK A01 T00520023  RH  082%=      5-min Rain = 0
KCR2 090100Z 33005KT 05/02 A3029 RMK A01 T00520019  RH  079%=      5-min Rain = 0
KCR2 090101Z 32004KT 05/02 A3029 RMK A01 T00520020  RH  079%=      5-min Rain = 0
KCR2 090102Z 32005KT 05/02 A3029 RMK A01 T00520020  RH  080%=      5-min Rain = 0
KCR2 090103Z 32005KT 05/02 A3029 RMK A01 T00530018  RH  078%=      5-min Rain = 0
KCR2 090104Z 32004KT 05/02 A3029 RMK A01 T00530019  RH  079%=      5-min Rain = 0
KCR2 090105Z 32004KT 05/02 A3029 RMK A01 T00530020  RH  079%=      5-min Rain = 0
KCR2 090106Z 32004KT 05/02 A3029 RMK A01 T00530021  RH  080%=      5-min Rain = 0
KCR2 090107Z 31004KT 05/02 A3029 RMK A01 T00530021  RH  080%=      5-min Rain = 0
KCR2 090108Z 32005KT 05/02 A3029 RMK A01 T00530021  RH  080%=      5-min Rain = 0
KCR2 090109Z 33005KT 05/02 A3029 RMK A01 T00530021  RH  080%=      5-min Rain = 0
KCR2 090110Z 34005KT 05/02 A3029 RMK A01 T00530022  RH  080%=      5-min Rain = 0
KCR2 090111Z 34005KT 05/02 A3029 RMK A01 T00530017  RH  078%=      5-min Rain = 0
KCR2 090112Z 35005KT 05/02 A3029 RMK A01 T00530015  RH  077%=      5-min Rain = 0
KCR2 090113Z 34005KT 05/01 A3029 RMK A01 T00520014  RH  076%=      5-min Rain = 0
KCR2 090114Z 32004KT 05/02 A3029 RMK A01 T00520015  RH  077%=      5-min Rain = 0
KCR2 090115Z 32004KT 05/02 A3029 RMK A01 T00520017  RH  078%=      5-min Rain = 0
KCR2 090116Z 33004KT 05/02 A3029 RMK A01 T00530019  RH  079%=      5-min Rain = 0
KCR2 090117Z 33005KT 05/02 A3029 RMK A01 T00520020  RH  079%=      5-min Rain = 0
KCR2 090118Z 33004KT 05/02 A3029 RMK A01 T00520018  RH  079%=      5-min Rain = 0
KCR2 090119Z 32003KT 05/02 A3029 RMK A01 T00530020  RH  079%=      5-min Rain = 0
KCR2 090120Z 32004KT 05/02 A3029 RMK A01 T00530022  RH  081%=      5-min Rain = 0
KCR2 090121Z 32003KT 05/02 A3029 RMK A01 T00520022  RH  081%=      5-min Rain = 0
KCR2 090122Z 33003KT 05/02 A3029 RMK A01 T00530022  RH  081%=      5-min Rain = 0
KCR2 090123Z 33003KT 05/02 A3029 RMK A01 T00530023  RH  081%=      5-min Rain = 0
KCR2 090124Z 33002KT 05/02 A3029 RMK A01 T00530023  RH  081%=      5-min Rain = 0
KCR2 090125Z 33002KT 05/02 A3029 RMK A01 T00530022  RH  081%=      5-min Rain = 0
KCR2 090126Z 32002KT 05/02 A3029 RMK A01 T00520022  RH  081%=      5-min Rain = 0
KCR2 090127Z 31003KT 05/02 A3029 RMK A01 T00530023  RH  081%=      5-min Rain = 0
KCR2 090128Z 31003KT 05/02 A3029 RMK A01 T00530023  RH  081%=      5-min Rain = 0
KCR2 090129Z 30002KT 05/02 A3029 RMK A01 T00530024  RH  082%=      5-min Rain = 0
KCR2 090130Z 30002KT 05/02 A3029 RMK A01 T00520024  RH  082%=      5-min Rain = 0
KCR2 090131Z 30002KT 05/03 A3029 RMK A01 T00530025  RH  082%=      5-min Rain = 0
KCR2 090132Z 30003KT 05/03 A3029 RMK A01 T00520025  RH  082%=      5-min Rain = 0
KCR2 090133Z 30003KT 05/02 A3029 RMK A01 T00520024  RH  082%=      5-min Rain = 0
KCR2 090134Z 30003KT 05/02 A3029 RMK A01 T00530024  RH  082%=      5-min Rain = 0
KCR2 090135Z 30003KT 05/02 A3029 RMK A01 T00530023  RH  081%=      5-min Rain = 0
KCR2 090136Z 30004KT 05/02 A3029 RMK A01 T00520023  RH  082%=      5-min Rain = 0
KCR2 090137Z 31004KT 05/02 A303 RMK A01 T00530022  RH  080%=      5-min Rain = 0
KCR2 090138Z 32004KT 05/02 A303 RMK A01 T00520021  RH  080%=      5-min Rain = 0
KCR2 090139Z 31004KT 05/02 A303 RMK A01 T00530021  RH  080%=      5-min Rain = 0
KCR2 090140Z 32005KT 05/02 A303 RMK A01 T00530020  RH  080%=      5-min Rain = 0
KCR2 090141Z 32004KT 05/02 A303 RMK A01 T00530020  RH  079%=      5-min Rain = 0
KCR2 090142Z 31004KT 05/02 A303 RMK A01 T00530018  RH  078%=      5-min Rain = 0
KCR2 090143Z 31004KT 05/02 A303 RMK A01 T00530019  RH  079%=      5-min Rain = 0
KCR2 090144Z 31003KT 05/02 A303 RMK A01 T00530020  RH  079%=      5-min Rain = 0
KCR2 090145Z 30003KT 05/02 A303 RMK A01 T00530022  RH  080%=      5-min Rain = 0
KCR2 090146Z 30003KT 05/02 A303 RMK A01 T00530022  RH  080%=      5-min Rain = 0
KCR2 090147Z 31003KT 05/02 A303 RMK A01 T00530023  RH  081%=      5-min Rain = 0
KCR2 090148Z 31003KT 05/02 A303 RMK A01 T00530023  RH  081%=      5-min Rain = 0
KCR2 090149Z 31003KT 05/02 A303 RMK A01 T00530023  RH  081%=      5-min Rain = 0
KCR2 090150Z 30003KT 05/02 A303 RMK A01 T00530022  RH  081%=      5-min Rain = 0
KCR2 090151Z 30004KT 05/02 A303 RMK A01 T00530023  RH  081%=      5-min Rain = 0
KCR2 090152Z 29003KT 05/02 A303 RMK A01 T00520023  RH  081%=      5-min Rain = 0
KCR2 090153Z 31004KT 05/02 A303 RMK A01 T00520023  RH  081%=      5-min Rain = 0
KCR2 090154Z 32004KT 05/02 A303 RMK A01 T00520022  RH  081%=      5-min Rain = 0
KCR2 090155Z 32005KT 05/02 A303 RMK A01 T00520019  RH  079%=      5-min Rain = 0
KCR2 090156Z 33006KT 05/02 A303 RMK A01 T00530017  RH  078%=      5-min Rain = 0
KCR2 090157Z 33005KT 05/02 A303 RMK A01 T00530017  RH  078%=      5-min Rain = 0
KCR2 090158Z 33006KT 05/02 A303 RMK A01 T00530018  RH  078%=      5-min Rain = 0
KCR2 090159Z 35007KT 05/02 A303 RMK A01 T00530017  RH  077%=      5-min Rain = 0
KCR2 090200Z 34005KT 05/02 A303 RMK A01 T00530015  RH  076%=      5-min Rain = 0
KCR2 090201Z 33004KT 05/02 A303 RMK A01 T00530015  RH  076%=      5-min Rain = 0
KCR2 090202Z 33004KT 05/02 A303 RMK A01 T00530015  RH  077%=      5-min Rain = 0
KCR2 090203Z 32004KT 05/02 A303 RMK A01 T00530016  RH  077%=      5-min Rain = 0
KCR2 090204Z 31004KT 05/02 A303 RMK A01 T00530016  RH  077%=      5-min Rain = 0
KCR2 090205Z 31003KT 05/02 A303 RMK A01 T00530017  RH  078%=      5-min Rain = 0
KCR2 090206Z 31005KT 05/02 A303 RMK A01 T00530019  RH  078%=      5-min Rain = 0
KCR2 090207Z 30005KT 05/02 A303 RMK A01 T00530017  RH  077%=      5-min Rain = 0
KCR2 090208Z 31005KT 05/02 A303 RMK A01 T00530018  RH  078%=      5-min Rain = 0
KCR2 090209Z 31005KT 05/02 A303 RMK A01 T00530018  RH  078%=      5-min Rain = 0
KCR2 090210Z 30004KT 05/02 A303 RMK A01 T00530017  RH  078%=      5-min Rain = 0
KCR2 090211Z 31003KT 05/02 A303 RMK A01 T00530019  RH  079%=      5-min Rain = 0
KCR2 090212Z 31004KT 05/02 A303 RMK A01 T00530020  RH  079%=      5-min Rain = 0
KCR2 090213Z 32005KT 05/02 A303 RMK A01 T00530019  RH  078%=      5-min Rain = 0
KCR2 090214Z 33004KT 05/02 A303 RMK A01 T00530018  RH  078%=      5-min Rain = 0
KCR2 090215Z 34005KT 05/02 A303 RMK A01 T00530019  RH  078%=      5-min Rain = 0
KCR2 090216Z 34007KT 05/02 A303 RMK A01 T00530018  RH  078%=      5-min Rain = 0
KCR2 090217Z 33006KT 05/02 A303 RMK A01 T00530017  RH  078%=      5-min Rain = 0
KCR2 090218Z 33005KT 05/02 A303 RMK A01 T00530016  RH  077%=      5-min Rain = 0
KCR2 090219Z 33007KT 05/02 A303 RMK A01 T00530016  RH  077%=      5-min Rain = 0
KCR2 090220Z 32007KT 05/02 A303 RMK A01 T00530017  RH  077%=      5-min Rain = 0
KCR2 090221Z 32006KT 05/02 A303 RMK A01 T00530018  RH  078%=      5-min Rain = 0
KCR2 090222Z 32006KT 05/02 A303 RMK A01 T00530018  RH  078%=      5-min Rain = 0
KCR2 090223Z 31006KT 05/02 A303 RMK A01 T00530016  RH  077%=      5-min Rain = 0
KCR2 090224Z 31006KT 05/02 A3031 RMK A01 T00530016  RH  077%=      5-min Rain = 0
KCR2 090225Z 31007KT 05/02 A3031 RMK A01 T00530015  RH  077%=      5-min Rain = 0
KCR2 090226Z 32006KT 05/02 A3031 RMK A01 T00530015  RH  076%=      5-min Rain = 0
KCR2 090227Z 31006KT 05/02 A3031 RMK A01 T00530017  RH  078%=      5-min Rain = 0
KCR2 090228Z 31006KT 05/02 A3031 RMK A01 T00530016  RH  077%=      5-min Rain = 0
KCR2 090229Z 31004KT 05/02 A3031 RMK A01 T00530015  RH  076%=      5-min Rain = 0
KCR2 090230Z 31004KT 05/02 A3031 RMK A01 T00530017  RH  077%=      5-min Rain = 0
KCR2 090231Z 32006KT 05/02 A3031 RMK A01 T00530016  RH  077%=      5-min Rain = 0
KCR2 090232Z 31006KT 05/02 A3031 RMK A01 T00530016  RH  077%=      5-min Rain = 0
KCR2 090233Z 31006KT 05/02 A3031 RMK A01 T00530018  RH  078%=      5-min Rain = 0
KCR2 090234Z 32006KT 05/02 A3031 RMK A01 T00530018  RH  078%=      5-min Rain = 0
KCR2 090235Z 32005KT 05/02 A3031 RMK A01 T00530017  RH  078%=      5-min Rain = 0
KCR2 090236Z 32006KT 05/02 A3031 RMK A01 T00530018  RH  078%=      5-min Rain = 0
KCR2 090237Z 31007KT 05/02 A3031 RMK A01 T00530017  RH  078%=      5-min Rain = 0
KCR2 090238Z 30006KT 05/02 A3031 RMK A01 T00530016  RH  077%=      5-min Rain = 0
KCR2 090239Z 30007KT 05/02 A3031 RMK A01 T00530015  RH  076%=      5-min Rain = 0
KCR2 090240Z 31006KT 05/01 A3031 RMK A01 T00530014  RH  076%=      5-min Rain = 0
KCR2 090241Z 30006KT 05/02 A3031 RMK A01 T00530016  RH  077%=      5-min Rain = 0
KCR2 090242Z 30006KT 05/02 A3031 RMK A01 T00530015  RH  077%=      5-min Rain = 0
KCR2 090243Z 31006KT 05/01 A3031 RMK A01 T00530014  RH  076%=      5-min Rain = 0
KCR2 090244Z 32005KT 05/02 A3031 RMK A01 T00530016  RH  077%=      5-min Rain = 0
KCR2 090245Z 32005KT 05/02 A3031 RMK A01 T00530016  RH  077%=      5-min Rain = 0
KCR2 090246Z 33004KT 05/02 A3031 RMK A01 T00530016  RH  077%=      5-min Rain = 0
KCR2 090247Z 33006KT 05/02 A3031 RMK A01 T00520017  RH  078%=      5-min Rain = 0
KCR2 090248Z 33005KT 05/02 A3031 RMK A01 T00520016  RH  077%=      5-min Rain = 0
KCR2 090249Z 34005KT 05/02 A3031 RMK A01 T00520016  RH  077%=      5-min Rain = 0
KCR2 090250Z 33004KT 05/02 A3031 RMK A01 T00520017  RH  078%=      5-min Rain = 0
KCR2 090251Z 34005KT 05/02 A3031 RMK A01 T00520017  RH  078%=      5-min Rain = 0
KCR2 090252Z 34004KT 05/02 A3031 RMK A01 T00520018  RH  078%=      5-min Rain = 0
KCR2 090253Z 34004KT 05/02 A3031 RMK A01 T00520018  RH  079%=      5-min Rain = 0
KCR2 090254Z 34004KT 05/02 A3031 RMK A01 T00520018  RH  079%=      5-min Rain = 0
KCR2 090255Z 35004KT 05/02 A3031 RMK A01 T00520019  RH  079%=      5-min Rain = 0
KCR2 090256Z 36004KT 05/02 A3031 RMK A01 T00510019  RH  080%=      5-min Rain = 0
KCR2 090257Z 35004KT 05/02 A3031 RMK A01 T00510019  RH  080%=      5-min Rain = 0
KCR2 090258Z 36003KT 05/02 A3031 RMK A01 T00510020  RH  080%=      5-min Rain = 0
KCR2 090259Z 36003KT 05/02 A3031 RMK A01 T00500020  RH  081%=      5-min Rain = 0
KCR2 090300Z 36003KT 05/02 A3031 RMK A01 T00490019  RH  081%=      5-min Rain = 0
KCR2 090301Z 35003KT 05/02 A3031 RMK A01 T00490018  RH  081%=      5-min Rain = 0
KCR2 090302Z 36004KT 05/02 A3031 RMK A01 T00490018  RH  080%=      5-min Rain = 0
KCR2 090303Z 36004KT 05/02 A3031 RMK A01 T00490017  RH  080%=      5-min Rain = 0
KCR2 090304Z 35004KT 05/02 A3031 RMK A01 T00480017  RH  080%=      5-min Rain = 0
KCR2 090305Z 35003KT 05/02 A3031 RMK A01 T00480018  RH  081%=      5-min Rain = 0
KCR2 090306Z 35004KT 05/02 A3031 RMK A01 T00470018  RH  081%=      5-min Rain = 0
KCR2 090307Z 35004KT 05/02 A3031 RMK A01 T00470018  RH  082%=      5-min Rain = 0
KCR2 090308Z 35004KT 05/02 A3031 RMK A01 T00460017  RH  082%=      5-min Rain = 0
KCR2 090309Z 35005KT 05/02 A3031 RMK A01 T00450016  RH  081%=      5-min Rain = 0
KCR2 090310Z 35004KT 05/01 A3031 RMK A01 T00450014  RH  080%=      5-min Rain = 0
KCR2 090311Z 35004KT 05/01 A3031 RMK A01 T00450014  RH  080%=      5-min Rain = 0
KCR2 090312Z 35004KT 05/01 A3031 RMK A01 T00450014  RH  080%=      5-min Rain = 0
KCR2 090313Z 00004KT 04/01 A3031 RMK A01 T00440013  RH  080%=      5-min Rain = 0
KCR2 090314Z 01005KT 04/01 A3031 RMK A01 T00440014  RH  081%=      5-min Rain = 0
KCR2 090315Z 01004KT 04/01 A3031 RMK A01 T00440014  RH  081%=      5-min Rain = 0
KCR2 090316Z 01005KT 04/01 A3031 RMK A01 T00440014  RH  081%=      5-min Rain = 0
KCR2 090317Z 01005KT 04/01 A3031 RMK A01 T00440013  RH  081%=      5-min Rain = 0
KCR2 090318Z 01004KT 04/01 A3031 RMK A01 T00430014  RH  081%=      5-min Rain = 0
KCR2 090319Z 36004KT 04/01 A3031 RMK A01 T00430013  RH  081%=      5-min Rain = 0
KCR2 090320Z 36004KT 04/01 A3031 RMK A01 T00430013  RH  081%=      5-min Rain = 0
KCR2 090321Z 36005KT 04/01 A3031 RMK A01 T00420013  RH  081%=      5-min Rain = 0
KCR2 090322Z 00005KT 04/01 A3031 RMK A01 T00420013  RH  082%=      5-min Rain = 0
KCR2 090323Z 00005KT 04/01 A3031 RMK A01 T00420013  RH  082%=      5-min Rain = 0
KCR2 090324Z 01005KT 04/01 A3031 RMK A01 T00420013  RH  082%=      5-min Rain = 0
KCR2 090325Z 01005KT 04/01 A3031 RMK A01 T00410013  RH  082%=      5-min Rain = 0
KCR2 090326Z 01005KT 04/01 A3031 RMK A01 T00410013  RH  082%=      5-min Rain = 0
KCR2 090327Z 01004KT 04/01 A3031 RMK A01 T00400013  RH  083%=      5-min Rain = 0
KCR2 090328Z 00004KT 04/01 A3031 RMK A01 T00400014  RH  083%=      5-min Rain = 0
KCR2 090329Z 01004KT 04/01 A3031 RMK A01 T00400014  RH  083%=      5-min Rain = 0
KCR2 090330Z 01004KT 04/01 A3031 RMK A01 T00400013  RH  083%=      5-min Rain = 0
KCR2 090331Z 01004KT 04/01 A3031 RMK A01 T00400014  RH  083%=      5-min Rain = 0
KCR2 090332Z 02004KT 04/01 A3031 RMK A01 T00400014  RH  083%=      5-min Rain = 0
KCR2 090333Z 02004KT 04/01 A3031 RMK A01 T00400014  RH  083%=      5-min Rain = 0
KCR2 090334Z 03004KT 04/01 A3031 RMK A01 T00400014  RH  083%=      5-min Rain = 0
KCR2 090335Z 03005KT 04/01 A3031 RMK A01 T00400014  RH  083%=      5-min Rain = 0
KCR2 090336Z 03004KT 04/01 A3031 RMK A01 T00400013  RH  082%=      5-min Rain = 0
KCR2 090337Z 03004KT 04/01 A3031 RMK A01 T00400013  RH  082%=      5-min Rain = 0
KCR2 090338Z 03004KT 04/01 A3031 RMK A01 T00400013  RH  082%=      5-min Rain = 0
KCR2 090339Z 04004KT 04/01 A3031 RMK A01 T00400013  RH  082%=      5-min Rain = 0
KCR2 090340Z 04004KT 04/01 A3031 RMK A01 T00400013  RH  083%=      5-min Rain = 0
KCR2 090341Z 05003KT 04/01 A3031 RMK A01 T00400013  RH  083%=      5-min Rain = 0
KCR2 090342Z 04004KT 04/01 A3031 RMK A01 T00400013  RH  083%=      5-min Rain = 0
KCR2 090343Z 04004KT 04/01 A3031 RMK A01 T00400013  RH  083%=      5-min Rain = 0
KCR2 090344Z 04003KT 04/01 A3031 RMK A01 T00390012  RH  083%=      5-min Rain = 0
KCR2 090345Z 05004KT 04/01 A3031 RMK A01 T00380013  RH  084%=      5-min Rain = 0
KCR2 090346Z 05004KT 04/01 A3031 RMK A01 T00380013  RH  084%=      5-min Rain = 0
KCR2 090347Z 05004KT 04/01 A3031 RMK A01 T00370013  RH  084%=      5-min Rain = 0
KCR2 090348Z 05004KT 04/01 A3031 RMK A01 T00370013  RH  084%=      5-min Rain = 0
KCR2 090349Z 05003KT 04/01 A3031 RMK A01 T00360014  RH  085%=      5-min Rain = 0
KCR2 090350Z 06003KT 04/01 A3031 RMK A01 T00350013  RH  085%=      5-min Rain = 0
KCR2 090351Z 06003KT 04/01 A3031 RMK A01 T00350014  RH  086%=      5-min Rain = 0
KCR2 090352Z 06003KT 04/01 A3031 RMK A01 T00350013  RH  086%=      5-min Rain = 0
KCR2 090353Z 06003KT 03/01 A3031 RMK A01 T00340012  RH  086%=      5-min Rain = 0
KCR2 090354Z 06003KT 03/01 A3031 RMK A01 T00340013  RH  086%=      5-min Rain = 0
KCR2 090355Z 06003KT 03/01 A3031 RMK A01 T00340013  RH  086%=      5-min Rain = 0
KCR2 090356Z 06003KT 03/01 A3031 RMK A01 T00340012  RH  086%=      5-min Rain = 0
KCR2 090357Z 06003KT 03/01 A303 RMK A01 T00340012  RH  086%=      5-min Rain = 0
KCR2 090358Z 05003KT 03/01 A3031 RMK A01 T00340012  RH  086%=      5-min Rain = 0
KCR2 090359Z 05003KT 03/01 A3031 RMK A01 T00330012  RH  086%=      5-min Rain = 0
KCR2 090400Z 06003KT 03/01 A3031 RMK A01 T00320012  RH  087%=      5-min Rain = 0
KCR2 090401Z 06004KT 03/01 A3031 RMK A01 T00320013  RH  087%=      5-min Rain = 0
KCR2 090402Z 06004KT 03/01 A3031 RMK A01 T00320013  RH  087%=      5-min Rain = 0
KCR2 090403Z 06004KT 03/01 A3031 RMK A01 T00320013  RH  087%=      5-min Rain = 0
KCR2 090404Z 06004KT 03/01 A3031 RMK A01 T00320013  RH  087%=      5-min Rain = 0
KCR2 090405Z 07004KT 03/01 A3031 RMK A01 T00320013  RH  087%=      5-min Rain = 0
KCR2 090406Z 07004KT 03/01 A3031 RMK A01 T00320013  RH  087%=      5-min Rain = 0
KCR2 090407Z 07004KT 03/01 A3031 RMK A01 T00320014  RH  088%=      5-min Rain = 0
KCR2 090408Z 07003KT 03/01 A3031 RMK A01 T00320013  RH  088%=      5-min Rain = 0
KCR2 090409Z 07003KT 03/01 A3031 RMK A01 T00320013  RH  088%=      5-min Rain = 0
KCR2 090410Z 07003KT 03/01 A3031 RMK A01 T00320013  RH  087%=      5-min Rain = 0
KCR2 090411Z 07003KT 03/01 A3031 RMK A01 T00320012  RH  087%=      5-min Rain = 0
KCR2 090412Z 06003KT 03/01 A3031 RMK A01 T00320012  RH  087%=      5-min Rain = 0
KCR2 090413Z 06003KT 03/01 A3031 RMK A01 T00310012  RH  087%=      5-min Rain = 0
KCR2 090414Z 06004KT 03/01 A3031 RMK A01 T00320012  RH  087%=      5-min Rain = 0
KCR2 090415Z 06004KT 03/01 A3031 RMK A01 T00310012  RH  087%=      5-min Rain = 0
KCR2 090416Z 06004KT 03/01 A3031 RMK A01 T00310012  RH  087%=      5-min Rain = 0
KCR2 090417Z 07004KT 03/01 A3031 RMK A01 T00310012  RH  087%=      5-min Rain = 0
KCR2 090418Z 06004KT 03/01 A3031 RMK A01 T00310012  RH  087%=      5-min Rain = 0
KCR2 090419Z 06004KT 03/01 A3031 RMK A01 T00310012  RH  087%=      5-min Rain = 0
KCR2 090420Z 06004KT 03/01 A3031 RMK A01 T00310012  RH  088%=      5-min Rain = 0
KCR2 090421Z 06004KT 03/01 A3031 RMK A01 T00310012  RH  088%=      5-min Rain = 0
KCR2 090422Z 06004KT 03/01 A3031 RMK A01 T00310012  RH  088%=      5-min Rain = 0
KCR2 090423Z 06004KT 03/01 A3031 RMK A01 T00300012  RH  088%=      5-min Rain = 0
KCR2 090424Z 05004KT 03/01 A3031 RMK A01 T00310012  RH  088%=      5-min Rain = 0
KCR2 090425Z 05004KT 03/01 A3031 RMK A01 T00310012  RH  087%=      5-min Rain = 0
KCR2 090426Z 05004KT 03/01 A3031 RMK A01 T00310012  RH  087%=      5-min Rain = 0
KCR2 090427Z 05004KT 03/01 A3031 RMK A01 T00310012  RH  087%=      5-min Rain = 0
KCR2 090428Z 05004KT 03/01 A3031 RMK A01 T00310012  RH  087%=      5-min Rain = 0
KCR2 090429Z 05004KT 03/01 A3031 RMK A01 T00300011  RH  087%=      5-min Rain = 0
KCR2 090430Z 05003KT 03/01 A3031 RMK A01 T00300011  RH  087%=      5-min Rain = 0
KCR2 090431Z 05003KT 03/01 A3031 RMK A01 T00300011  RH  088%=      5-min Rain = 0
KCR2 090432Z 05003KT 03/01 A3031 RMK A01 T00290011  RH  088%=      5-min Rain = 0
KCR2 090433Z 05003KT 03/01 A3031 RMK A01 T00300012  RH  088%=      5-min Rain = 0
KCR2 090434Z 05003KT 03/01 A3031 RMK A01 T00300012  RH  088%=      5-min Rain = 0
KCR2 090435Z 05003KT 03/01 A3031 RMK A01 T00300011  RH  088%=      5-min Rain = 0
KCR2 090436Z 05004KT 03/01 A3032 RMK A01 T00300011  RH  088%=      5-min Rain = 0
KCR2 090437Z 05003KT 03/01 A3032 RMK A01 T00300011  RH  088%=      5-min Rain = 0
KCR2 090438Z 05003KT 03/01 A3032 RMK A01 T00300012  RH  088%=      5-min Rain = 0
KCR2 090439Z 05003KT 03/01 A3032 RMK A01 T00300012  RH  088%=      5-min Rain = 0
KCR2 090440Z 05003KT 03/01 A3032 RMK A01 T00300012  RH  088%=      5-min Rain = 0
KCR2 090441Z 05003KT 03/01 A3032 RMK A01 T00300011  RH  088%=      5-min Rain = 0
KCR2 090442Z 05003KT 03/01 A3032 RMK A01 T00310012  RH  088%=      5-min Rain = 0
KCR2 090443Z 05003KT 03/01 A3032 RMK A01 T00310012  RH  087%=      5-min Rain = 0
KCR2 090444Z 05003KT 03/01 A3032 RMK A01 T00300011  RH  087%=      5-min Rain = 0
KCR2 090445Z 06002KT 03/01 A3032 RMK A01 T00300011  RH  088%=      5-min Rain = 0
KCR2 090446Z 06002KT 03/01 A3032 RMK A01 T00290011  RH  088%=      5-min Rain = 0
KCR2 090447Z 06002KT 03/01 A3032 RMK A01 T00290011  RH  088%=      5-min Rain = 0
KCR2 090448Z 07002KT 03/01 A3032 RMK A01 T00290011  RH  088%=      5-min Rain = 0
KCR2 090449Z 07002KT 03/01 A3032 RMK A01 T00290011  RH  088%=      5-min Rain = 0
KCR2 090450Z 07002KT 03/01 A3032 RMK A01 T00280011  RH  088%=      5-min Rain = 0
KCR2 090451Z 08001KT 03/01 A3032 RMK A01 T00270011  RH  089%=      5-min Rain = 0
KCR2 090452Z 08001KT 03/01 A3032 RMK A01 T00270011  RH  089%=      5-min Rain = 0
KCR2 090453Z 09001KT 03/01 A3032 RMK A01 T00260011  RH  089%=      5-min Rain = 0
KCR2 090454Z 09001KT 03/01 A3032 RMK A01 T00260011  RH  090%=      5-min Rain = 0
KCR2 090455Z 09001KT 03/01 A3032 RMK A01 T00260011  RH  090%=      5-min Rain = 0
KCR2 090456Z 09001KT 03/01 A3032 RMK A01 T00250010  RH  090%=      5-min Rain = 0
KCR2 090457Z 09002KT 02/01 A3032 RMK A01 T00240009  RH  090%=      5-min Rain = 0
KCR2 090458Z 08002KT 02/01 A3032 RMK A01 T00230009  RH  090%=      5-min Rain = 0
KCR2 090459Z 08002KT 02/01 A3032 RMK A01 T00240010  RH  091%=      5-min Rain = 0
KCR2 090500Z 08002KT 02/01 A3032 RMK A01 T00230010  RH  091%=      5-min Rain = 0
KCR2 090501Z 08002KT 02/01 A3032 RMK A01 T00240011  RH  091%=      5-min Rain = 0
KCR2 090502Z 08002KT 02/01 A3032 RMK A01 T00240011  RH  091%=      5-min Rain = 0
KCR2 090503Z 08002KT 02/01 A3032 RMK A01 T00240011  RH  091%=      5-min Rain = 0
KCR2 090504Z 09002KT 03/01 A3032 RMK A01 T00250011  RH  091%=      5-min Rain = 0
KCR2 090505Z 09002KT 03/01 A3032 RMK A01 T00250011  RH  090%=      5-min Rain = 0
KCR2 090506Z 09002KT 03/01 A3032 RMK A01 T00250010  RH  090%=      5-min Rain = 0
KCR2 090507Z 10002KT 03/01 A3032 RMK A01 T00250011  RH  090%=      5-min Rain = 0
KCR2 090508Z 10002KT 02/01 A3032 RMK A01 T00240010  RH  090%=      5-min Rain = 0
KCR2 090509Z 10002KT 02/01 A3032 RMK A01 T00240010  RH  090%=      5-min Rain = 0
KCR2 090510Z 10002KT 02/01 A3032 RMK A01 T00240010  RH  090%=      5-min Rain = 0
KCR2 090511Z 10002KT 02/01 A3032 RMK A01 T00240010  RH  091%=      5-min Rain = 0
KCR2 090512Z 10002KT 02/01 A3032 RMK A01 T00240011  RH  091%=      5-min Rain = 0
KCR2 090513Z 10003KT 02/01 A3032 RMK A01 T00240010  RH  091%=      5-min Rain = 0
KCR2 090514Z 10002KT 02/01 A3032 RMK A01 T00240010  RH  090%=      5-min Rain = 0
KCR2 090515Z 10002KT 02/01 A3032 RMK A01 T00240010  RH  090%=      5-min Rain = 0
KCR2 090516Z 11002KT 02/01 A3032 RMK A01 T00240010  RH  090%=      5-min Rain = 0
KCR2 090517Z 11002KT 02/01 A3032 RMK A01 T00240010  RH  090%=      5-min Rain = 0
KCR2 090518Z 11002KT 02/01 A3032 RMK A01 T00240009  RH  090%=      5-min Rain = 0
KCR2 090519Z 11002KT 02/01 A3032 RMK A01 T00230009  RH  090%=      5-min Rain = 0
KCR2 090520Z 10003KT 02/01 A3032 RMK A01 T00230008  RH  090%=      5-min Rain = 0
KCR2 090521Z 10003KT 02/01 A3032 RMK A01 T00230009  RH  090%=      5-min Rain = 0
KCR2 090522Z 10003KT 02/01 A3032 RMK A01 T00230008  RH  090%=      5-min Rain = 0
KCR2 090523Z 10003KT 02/01 A3032 RMK A01 T00220007  RH  090%=      5-min Rain = 0
KCR2 090524Z 10003KT 02/01 A3032 RMK A01 T00210007  RH  090%=      5-min Rain = 0
KCR2 090525Z 11003KT 02/01 A3032 RMK A01 T00210007  RH  091%=      5-min Rain = 0
KCR2 090526Z 11002KT 02/01 A3032 RMK A01 T00200007  RH  091%=      5-min Rain = 0
KCR2 090527Z 11002KT 02/01 A3032 RMK A01 T00200008  RH  091%=      5-min Rain = 0
KCR2 090528Z 11002KT 02/01 A3032 RMK A01 T00200008  RH  092%=      5-min Rain = 0
KCR2 090529Z 11002KT 02/01 A3032 RMK A01 T00200008  RH  092%=      5-min Rain = 0
KCR2 090530Z 12002KT 02/01 A3032 RMK A01 T00190007  RH  092%=      5-min Rain = 0
KCR2 090531Z 12002KT 02/01 A3032 RMK A01 T00190007  RH  092%=      5-min Rain = 0
KCR2 090532Z 13002KT 02/01 A3032 RMK A01 T00180006  RH  092%=      5-min Rain = 0
KCR2 090533Z 13002KT 02/01 A3032 RMK A01 T00180006  RH  092%=      5-min Rain = 0
KCR2 090534Z 13002KT 02/01 A3032 RMK A01 T00170006  RH  092%=      5-min Rain = 0
KCR2 090535Z 13002KT 02/01 A3032 RMK A01 T00170006  RH  092%=      5-min Rain = 0
KCR2 090536Z 13002KT 02/01 A3032 RMK A01 T00170007  RH  093%=      5-min Rain = 0
KCR2 090537Z 13003KT 02/01 A3032 RMK A01 T00170006  RH  092%=      5-min Rain = 0
KCR2 090538Z 13003KT 02/01 A3032 RMK A01 T00170006  RH  092%=      5-min Rain = 0
KCR2 090539Z 14003KT 02/01 A3032 RMK A01 T00170006  RH  093%=      5-min Rain = 0
KCR2 090540Z 14003KT 02/01 A3032 RMK A01 T00170008  RH  093%=      5-min Rain = 0
KCR2 090541Z 14003KT 02/01 A3032 RMK A01 T00170008  RH  094%=      5-min Rain = 0
KCR2 090542Z 13003KT 02/01 A3032 RMK A01 T00170008  RH  094%=      5-min Rain = 0
KCR2 090543Z 13002KT 02/01 A3032 RMK A01 T00170008  RH  094%=      5-min Rain = 0
KCR2 090544Z 13002KT 02/01 A3032 RMK A01 T00170009  RH  094%=      5-min Rain = 0
KCR2 090545Z 13002KT 02/01 A3032 RMK A01 T00180009  RH  094%=      5-min Rain = 0
KCR2 090546Z 13002KT 02/01 A3032 RMK A01 T00180009  RH  094%=      5-min Rain = 0
KCR2 090547Z 13002KT 02/01 A3032 RMK A01 T00180009  RH  094%=      5-min Rain = 0
KCR2 090548Z 14002KT 02/01 A3032 RMK A01 T00180009  RH  094%=      5-min Rain = 0
KCR2 090549Z 14002KT 02/01 A3032 RMK A01 T00190010  RH  094%=      5-min Rain = 0
KCR2 090550Z 14002KT 02/01 A3032 RMK A01 T00190010  RH  094%=      5-min Rain = 0
KCR2 090551Z 14002KT 02/01 A3032 RMK A01 T00190009  RH  093%=      5-min Rain = 0
KCR2 090552Z 14002KT 02/01 A3032 RMK A01 T00190008  RH  093%=      5-min Rain = 0
KCR2 090553Z 14002KT 02/01 A3032 RMK A01 T00180008  RH  093%=      5-min Rain = 0
KCR2 090554Z 14002KT 02/01 A3032 RMK A01 T00170007  RH  093%=      5-min Rain = 0
KCR2 090555Z 13002KT 02/01 A3032 RMK A01 T00170007  RH  093%=      5-min Rain = 0
KCR2 090556Z 13002KT 02/01 A3032 RMK A01 T00170008  RH  093%=      5-min Rain = 0
KCR2 090557Z 13002KT 02/01 A3032 RMK A01 T00170008  RH  094%=      5-min Rain = 0
KCR2 090558Z 13002KT 02/01 A3032 RMK A01 T00170008  RH  094%=      5-min Rain = 0
KCR2 090559Z 13002KT 02/01 A3032 RMK A01 T00170008  RH  094%=      5-min Rain = 0

Page generated in 0.0769 seconds.